Wetterdaten: Dienstag, 21.03.2017
Datum Zeit Temp. Aussen Temp. o. S. +5cm Feuchte Auss BlattFeu 1 Luftdruck Regen Sonnenschein Regendauer Solar Windben Empfang
21.03.2017 00:00 11,3 C 10,6 C 8,9 C 80 % 2 lf 1004,8 hPa 0,0 l/m 0 min 2 min 0 W/m 29,3 km/h (5 Bft) 97,62 %
21.03.2017 00:02 11,3 C 11,1 C 8,9 C 80 % 0 lf 1004,8 hPa 0,0 l/m 0 min 2 min 0 W/m 27,2 km/h (4 Bft) 94,29 %
21.03.2017 00:05 11,2 C 11,1 C 8,9 C 81 % 0 lf 1004,9 hPa 0,0 l/m 0 min 0 min 0 W/m 27,2 km/h (4 Bft) 98,65 %
21.03.2017 00:06 11,2 C 11,1 C 8,9 C 81 % 0 lf 1004,9 hPa 0,0 l/m 0 min 0 min 0 W/m 29,3 km/h (5 Bft) 100,00 %
21.03.2017 00:08 11,2 C 11,1 C 9,4 C 81 % 4 lf 1004,9 hPa 0,0 l/m 0 min 0 min 0 W/m 29,3 km/h (5 Bft) 100,00 %
21.03.2017 00:10 11,2 C 11,1 C 9,4 C 81 % 1 lf 1004,9 hPa 0,0 l/m 0 min 0 min 0 W/m 27,2 km/h (4 Bft) 97,87 %
21.03.2017 00:12 11,2 C 11,1 C 9,4 C 81 % 3 lf 1004,8 hPa 0,0 l/m 0 min 2 min 0 W/m 29,3 km/h (5 Bft) 97,83 %
21.03.2017 00:14 11,2 C 11,1 C 9,4 C 81 % 2 lf 1004,8 hPa 0,0 l/m 0 min 2 min 0 W/m 35,6 km/h (5 Bft) 100,00 %
21.03.2017 00:16 11,2 C 11,1 C 9,4 C 81 % 3 lf 1004,9 hPa 0,0 l/m 0 min 2 min 0 W/m 27,2 km/h (4 Bft) 100,00 %
21.03.2017 00:18 11,2 C 10,6 C 8,9 C 81 % 1 lf 1004,9 hPa 0,0 l/m 0 min 2 min 0 W/m 23,0 km/h (4 Bft) 97,87 %
21.03.2017 00:20 11,1 C 10,6 C 9,4 C 81 % 0 lf 1004,8 hPa 0,0 l/m 0 min 0 min 0 W/m 39,7 km/h (6 Bft) 93,62 %
21.03.2017 00:22 11,1 C 11,1 C 9,4 C 82 % 0 lf 1004,9 hPa 0,0 l/m 0 min 0 min 0 W/m 23,0 km/h (4 Bft) 100,00 %
21.03.2017 00:24 11,1 C 11,1 C 9,4 C 82 % 0 lf 1004,9 hPa 0,0 l/m 0 min 0 min 0 W/m 35,6 km/h (5 Bft) 93,48 %
21.03.2017 00:26 11,1 C 11,1 C 9,4 C 82 % 0 lf 1004,8 hPa 0,0 l/m 0 min 0 min 0 W/m 23,0 km/h (4 Bft) 100,00 %
21.03.2017 00:28 11,1 C 11,1 C 9,4 C 82 % 0 lf 1004,9 hPa 0,0 l/m 0 min 0 min 0 W/m 39,7 km/h (6 Bft) 95,74 %
21.03.2017 00:30 11,1 C 11,1 C 9,4 C 82 % 0 lf 1004,8 hPa 0,0 l/m 0 min 0 min 0 W/m 27,2 km/h (4 Bft) 97,87 %
21.03.2017 00:32 11,1 C 11,1 C 9,4 C 82 % 0 lf 1004,9 hPa 0,0 l/m 0 min 0 min 0 W/m 27,2 km/h (4 Bft) 93,62 %
21.03.2017 00:34 11,1 C 11,1 C 9,4 C 82 % 0 lf 1004,9 hPa 0,0 l/m 0 min 0 min 0 W/m 37,7 km/h (5 Bft) 97,87 %
21.03.2017 00:36 11,1 C 11,1 C 9,4 C 82 % 0 lf 1004,9 hPa 0,0 l/m 0 min 0 min 0 W/m 33,5 km/h (5 Bft) 100,00 %
21.03.2017 00:38 11,1 C 11,1 C 9,4 C 82 % 0 lf 1004,9 hPa 0,0 l/m 0 min 0 min 0 W/m 31,4 km/h (5 Bft) 100,00 %
21.03.2017 00:40 11,1 C 11,1 C 9,4 C 82 % 0 lf 1004,9 hPa 0,0 l/m 0 min 0 min 0 W/m 23,0 km/h (4 Bft) 95,74 %
21.03.2017 00:42 11,1 C 11,1 C 9,4 C 82 % 0 lf 1004,9 hPa 0,0 l/m 0 min 0 min 0 W/m 33,5 km/h (5 Bft) 100,00 %
21.03.2017 00:44 11,1 C 11,1 C 9,4 C 82 % 0 lf 1004,9 hPa 0,0 l/m 0 min 0 min 0 W/m 31,4 km/h (5 Bft) 95,74 %
21.03.2017 00:46 11,1 C 11,1 C 9,4 C 82 % 0 lf 1004,8 hPa 0,0 l/m 0 min 0 min 0 W/m 27,2 km/h (4 Bft) 95,65 %
21.03.2017 00:48 11,1 C 11,1 C 9,4 C 82 % 0 lf 1004,8 hPa 0,0 l/m 0 min 0 min 0 W/m 33,5 km/h (5 Bft) 89,36 %
21.03.2017 00:50 11,1 C 11,1 C 9,4 C 82 % 0 lf 1004,7 hPa 0,0 l/m 0 min 0 min 0 W/m 20,9 km/h (4 Bft) 95,74 %
21.03.2017 00:52 11,1 C 11,1 C 9,4 C 82 % 0 lf 1004,8 hPa 0,0 l/m 0 min 0 min 0 W/m 25,1 km/h (4 Bft) 93,62 %
21.03.2017 00:54 11,1 C 11,1 C 9,4 C 82 % 0 lf 1004,8 hPa 0,0 l/m 0 min 0 min 0 W/m 27,2 km/h (4 Bft) 93,62 %
21.03.2017 00:56 11,1 C 11,1 C 10,0 C 82 % 0 lf 1004,9 hPa 0,0 l/m 0 min 0 min 0 W/m 29,3 km/h (5 Bft) 95,74 %
21.03.2017 00:58 11,1 C 11,1 C 10,0 C 82 % 0 lf 1004,9 hPa 0,0 l/m 0 min 0 min 0 W/m 25,1 km/h (4 Bft) 95,74 %
21.03.2017 01:00 11,1 C 11,1 C 10,0 C 82 % 0 lf 1004,8 hPa 0,0 l/m 0 min 0 min 0 W/m 27,2 km/h (4 Bft) 93,75 %
21.03.2017 01:02 11,1 C 11,1 C 9,4 C 82 % 0 lf 1004,9 hPa 0,0 l/m 0 min 0 min 0 W/m 31,4 km/h (5 Bft) 93,62 %
21.03.2017 01:04 11,1 C 11,1 C 9,4 C 82 % 3 lf 1004,9 hPa 0,0 l/m 0 min 0 min 0 W/m 27,2 km/h (4 Bft) 91,49 %
21.03.2017 01:06 11,1 C 10,6 C 9,4 C 82 % 4 lf 1004,9 hPa 0,0 l/m 0 min 2 min 0 W/m 39,7 km/h (6 Bft) 93,62 %
21.03.2017 01:08 11,1 C 10,6 C 8,9 C 82 % 7 lf 1004,9 hPa 0,0 l/m 0 min 2 min 0 W/m 29,3 km/h (5 Bft) 95,74 %
21.03.2017 01:10 11,1 C 10,0 C 8,3 C 83 % 1 lf 1005,0 hPa 0,0 l/m 0 min 2 min 0 W/m 33,5 km/h (5 Bft) 95,74 %
21.03.2017 01:12 11,1 C 10,6 C 8,9 C 84 % 1 lf 1004,9 hPa 0,0 l/m 0 min 2 min 0 W/m 37,7 km/h (5 Bft) 93,48 %
21.03.2017 01:14 11,0 C 10,6 C 8,9 C 84 % 0 lf 1005,0 hPa 0,0 l/m 0 min 2 min 0 W/m 35,6 km/h (5 Bft) 93,62 %
21.03.2017 01:16 10,9 C 10,6 C 8,9 C 85 % 0 lf 1004,9 hPa 0,0 l/m 0 min 0 min 0 W/m 41,8 km/h (6 Bft) 95,74 %
21.03.2017 01:18 10,9 C 10,6 C 8,9 C 85 % 0 lf 1004,9 hPa 0,0 l/m 0 min 0 min 0 W/m 33,5 km/h (5 Bft) 91,49 %
21.03.2017 01:20 10,8 C 10,6 C 8,9 C 85 % 0 lf 1004,8 hPa 0,0 l/m 0 min 0 min 0 W/m 25,1 km/h (4 Bft) 95,74 %
21.03.2017 01:22 10,8 C 10,6 C 8,9 C 85 % 2 lf 1004,8 hPa 0,0 l/m 0 min 2 min 0 W/m 35,6 km/h (5 Bft) 93,62 %
21.03.2017 01:24 10,8 C 10,6 C 8,9 C 86 % 0 lf 1004,9 hPa 0,0 l/m 0 min 0 min 0 W/m 29,3 km/h (5 Bft) 95,65 %
21.03.2017 01:26 10,8 C 10,6 C 9,4 C 86 % 2 lf 1004,9 hPa 0,0 l/m 0 min 0 min 0 W/m 41,8 km/h (6 Bft) 93,62 %
21.03.2017 01:28 10,7 C 10,6 C 8,9 C 86 % 1 lf 1004,9 hPa 0,0 l/m 0 min 0 min 0 W/m 33,5 km/h (5 Bft) 93,62 %
21.03.2017 01:30 10,7 C 10,6 C 8,9 C 86 % 0 lf 1004,9 hPa 0,0 l/m 0 min 0 min 0 W/m 33,5 km/h (5 Bft) 95,74 %
21.03.2017 01:32 10,7 C 10,6 C 8,9 C 86 % 0 lf 1004,9 hPa 0,0 l/m 0 min 0 min 0 W/m 31,4 km/h (5 Bft) 95,74 %
21.03.2017 01:34 10,7 C 10,6 C 8,9 C 86 % 2 lf 1004,9 hPa 0,0 l/m 0 min 0 min 0 W/m 27,2 km/h (4 Bft) 97,87 %
21.03.2017 01:36 10,7 C 9,4 C 8,9 C 87 % 15 lf 1004,9 hPa 0,0 l/m 0 min 2 min 0 W/m 35,6 km/h (5 Bft) 95,65 %
21.03.2017 01:38 10,7 C 9,4 C 8,3 C 87 % 15 lf 1004,9 hPa 0,0 l/m 0 min 2 min 0 W/m 25,1 km/h (4 Bft) 97,87 %
21.03.2017 01:40 10,6 C 9,4 C 8,3 C 87 % 15 lf 1004,9 hPa 0,0 l/m 0 min 2 min 0 W/m 25,1 km/h (4 Bft) 89,36 %
21.03.2017 01:42 10,6 C 9,4 C 7,8 C 88 % 15 lf 1004,9 hPa 0,0 l/m 0 min 2 min 0 W/m 27,2 km/h (4 Bft) 95,74 %
21.03.2017 01:44 10,6 C 9,4 C 7,8 C 88 % 15 lf 1004,9 hPa 0,0 l/m 0 min 2 min 0 W/m 29,3 km/h (5 Bft) 97,87 %
21.03.2017 01:46 10,5 C 9,4 C 7,8 C 88 % 15 lf 1004,9 hPa 0,0 l/m 0 min 2 min 0 W/m 23,0 km/h (4 Bft) 91,49 %
21.03.2017 01:48 10,5 C 9,4 C 7,8 C 89 % 15 lf 1004,9 hPa 0,0 l/m 0 min 2 min 0 W/m 23,0 km/h (4 Bft) 97,83 %
21.03.2017 01:50 10,4 C 9,4 C 7,8 C 89 % 15 lf 1004,9 hPa 0,0 l/m 0 min 2 min 0 W/m 20,9 km/h (4 Bft) 97,87 %
21.03.2017 01:52 10,4 C 9,4 C 7,8 C 89 % 15 lf 1005,0 hPa 0,0 l/m 0 min 0 min 0 W/m 20,9 km/h (4 Bft) 97,87 %
21.03.2017 01:54 10,3 C 9,4 C 7,8 C 89 % 15 lf 1005,0 hPa 0,0 l/m 0 min 2 min 0 W/m 18,8 km/h (3 Bft) 97,87 %
21.03.2017 01:56 10,3 C 9,4 C 7,8 C 90 % 15 lf 1005,1 hPa 0,2 l/m 0 min 0 min 0 W/m 23,0 km/h (4 Bft) 95,74 %
21.03.2017 01:58 10,3 C 9,4 C 7,8 C 90 % 15 lf 1005,0 hPa 0,0 l/m 0 min 0 min 0 W/m 20,9 km/h (4 Bft) 97,87 %
21.03.2017 02:00 10,2 C 9,4 C 7,8 C 90 % 15 lf 1004,9 hPa 0,0 l/m 0 min 2 min 0 W/m 20,9 km/h (4 Bft) 97,83 %
21.03.2017 02:02 10,2 C 9,4 C 7,8 C 90 % 15 lf 1005,0 hPa 0,0 l/m 0 min 2 min 0 W/m 27,2 km/h (4 Bft) 97,87 %
21.03.2017 02:04 10,2 C 9,4 C 7,8 C 90 % 15 lf 1005,1 hPa 0,0 l/m 0 min 2 min 0 W/m 27,2 km/h (4 Bft) 97,87 %
21.03.2017 02:06 10,2 C 9,4 C 7,8 C 90 % 15 lf 1005,0 hPa 0,0 l/m 0 min 2 min 0 W/m 31,4 km/h (5 Bft) 95,74 %
21.03.2017 02:08 10,2 C 9,4 C 7,8 C 90 % 15 lf 1005,0 hPa 0,0 l/m 0 min 2 min 0 W/m 25,1 km/h (4 Bft) 95,74 %
21.03.2017 02:10 10,2 C 9,4 C 7,8 C 90 % 15 lf 1004,9 hPa 0,0 l/m 0 min 2 min 0 W/m 18,8 km/h (3 Bft) 95,74 %
21.03.2017 02:12 10,2 C 9,4 C 7,8 C 91 % 15 lf 1005,0 hPa 0,0 l/m 0 min 0 min 0 W/m 25,1 km/h (4 Bft) 86,96 %
21.03.2017 02:14 10,2 C 9,4 C 7,8 C 91 % 15 lf 1005,1 hPa 0,0 l/m 0 min 2 min 0 W/m 31,4 km/h (5 Bft) 95,74 %
21.03.2017 02:16 10,2 C 9,4 C 7,8 C 91 % 15 lf 1005,0 hPa 0,0 l/m 0 min 2 min 0 W/m 29,3 km/h (5 Bft) 95,74 %
21.03.2017 02:18 10,2 C 9,4 C 7,8 C 91 % 15 lf 1005,0 hPa 0,0 l/m 0 min 2 min 0 W/m 29,3 km/h (5 Bft) 93,62 %
21.03.2017 02:20 10,2 C 9,4 C 7,8 C 91 % 15 lf 1005,1 hPa 0,0 l/m 0 min 2 min 0 W/m 29,3 km/h (5 Bft) 93,48 %
21.03.2017 02:22 10,2 C 9,4 C 7,8 C 91 % 15 lf 1005,1 hPa 0,0 l/m 0 min 2 min 0 W/m 33,5 km/h (5 Bft) 95,65 %
21.03.2017 02:24 10,2 C 9,4 C 7,8 C 91 % 15 lf 1005,1 hPa 0,0 l/m 0 min 2 min 0 W/m 27,2 km/h (4 Bft) 95,74 %
21.03.2017 02:26 10,2 C 9,4 C 7,8 C 91 % 15 lf 1005,1 hPa 0,2 l/m 0 min 2 min 0 W/m 25,1 km/h (4 Bft) 93,62 %
21.03.2017 02:28 10,2 C 9,4 C 7,8 C 92 % 15 lf 1005,2 hPa 0,0 l/m 0 min 2 min 0 W/m 29,3 km/h (5 Bft) 95,74 %
21.03.2017 02:30 10,1 C 9,4 C 7,8 C 92 % 15 lf 1005,2 hPa 0,0 l/m 0 min 2 min 0 W/m 27,2 km/h (4 Bft) 95,74 %
21.03.2017 02:33 10,1 C 9,4 C 7,8 C 92 % 15 lf 1005,1 hPa 0,0 l/m 0 min 0 min 0 W/m 25,1 km/h (4 Bft) 94,29 %
21.03.2017 02:34 10,1 C 9,4 C 7,8 C 92 % 15 lf 1005,1 hPa 0,0 l/m 0 min 1 min 0 W/m 29,3 km/h (5 Bft) 91,30 %
21.03.2017 02:36 10,0 C 9,4 C 7,8 C 92 % 15 lf 1005,2 hPa 0,0 l/m 0 min 2 min 0 W/m 23,0 km/h (4 Bft) 95,74 %
21.03.2017 02:38 10,0 C 9,4 C 7,8 C 92 % 15 lf 1005,2 hPa 0,0 l/m 0 min 2 min 0 W/m 23,0 km/h (4 Bft) 95,74 %
21.03.2017 02:40 10,0 C 9,4 C 7,8 C 93 % 15 lf 1005,2 hPa 0,0 l/m 0 min 0 min 0 W/m 20,9 km/h (4 Bft) 95,74 %
21.03.2017 02:42 9,9 C 9,4 C 7,8 C 93 % 15 lf 1005,1 hPa 0,0 l/m 0 min 0 min 0 W/m 16,7 km/h (3 Bft) 91,49 %
21.03.2017 02:44 9,9 C 9,4 C 7,8 C 93 % 15 lf 1005,2 hPa 0,0 l/m 0 min 0 min 0 W/m 27,2 km/h (4 Bft) 91,49 %
21.03.2017 02:46 9,9 C 9,4 C 7,8 C 93 % 15 lf 1005,1 hPa 0,0 l/m 0 min 0 min 0 W/m 18,8 km/h (3 Bft) 89,13 %
21.03.2017 02:48 9,9 C 9,4 C 7,8 C 93 % 15 lf 1005,2 hPa 0,0 l/m 0 min 0 min 0 W/m 23,0 km/h (4 Bft) 93,62 %
21.03.2017 02:50 9,9 C 9,4 C 7,8 C 93 % 15 lf 1005,2 hPa 0,0 l/m 0 min 0 min 0 W/m 23,0 km/h (4 Bft) 95,74 %
21.03.2017 02:52 9,9 C 9,4 C 7,8 C 93 % 15 lf 1005,2 hPa 0,0 l/m 0 min 0 min 0 W/m 25,1 km/h (4 Bft) 95,74 %
21.03.2017 02:54 9,9 C 9,4 C 7,8 C 93 % 15 lf 1005,2 hPa 0,0 l/m 0 min 0 min 0 W/m 20,9 km/h (4 Bft) 93,62 %
21.03.2017 02:56 9,9 C 9,4 C 7,8 C 93 % 15 lf 1005,2 hPa 0,0 l/m 0 min 0 min 0 W/m 16,7 km/h (3 Bft) 97,87 %
21.03.2017 02:58 9,8 C 9,4 C 7,8 C 93 % 15 lf 1005,2 hPa 0,0 l/m 0 min 0 min 0 W/m 18,8 km/h (3 Bft) 97,83 %
21.03.2017 03:00 9,8 C 9,4 C 7,8 C 93 % 15 lf 1005,2 hPa 0,0 l/m 0 min 0 min 0 W/m 12,6 km/h (3 Bft) 100,00 %
21.03.2017 03:02 9,8 C 9,4 C 7,8 C 93 % 15 lf 1005,2 hPa 0,0 l/m 0 min 0 min 0 W/m 18,8 km/h (3 Bft) 96,00 %
21.03.2017 03:04 9,8 C 9,4 C 7,8 C 93 % 15 lf 1005,1 hPa 0,0 l/m 0 min 0 min 0 W/m 12,6 km/h (3 Bft) 93,88 %
21.03.2017 03:06 9,8 C 9,4 C 7,8 C 93 % 15 lf 1005,1 hPa 0,0 l/m 0 min 0 min 0 W/m 16,7 km/h (3 Bft) 95,74 %
21.03.2017 03:08 9,8 C 9,4 C 7,8 C 94 % 15 lf 1005,1 hPa 0,0 l/m 0 min 0 min 0 W/m 16,7 km/h (3 Bft) 100,00 %
21.03.2017 03:10 9,8 C 9,4 C 7,8 C 94 % 15 lf 1005,1 hPa 0,0 l/m 0 min 0 min 0 W/m 20,9 km/h (4 Bft) 100,00 %
21.03.2017 03:12 9,8 C 9,4 C 7,8 C 94 % 15 lf 1005,0 hPa 0,0 l/m 0 min 0 min 0 W/m 10,5 km/h (2 Bft) 100,00 %
21.03.2017 03:14 9,8 C 9,4 C 7,8 C 94 % 15 lf 1005,1 hPa 0,0 l/m 0 min 0 min 0 W/m 16,7 km/h (3 Bft) 100,00 %
21.03.2017 03:16 9,7 C 8,9 C 7,8 C 94 % 15 lf 1005,0 hPa 0,0 l/m 0 min 0 min 0 W/m 14,6 km/h (3 Bft) 100,00 %
21.03.2017 03:18 9,7 C 9,4 C 7,8 C 94 % 15 lf 1005,0 hPa 0,0 l/m 0 min 0 min 0 W/m 16,7 km/h (3 Bft) 95,74 %
21.03.2017 03:20 9,7 C 8,9 C 7,8 C 93 % 15 lf 1005,1 hPa 0,0 l/m 0 min 0 min 0 W/m 10,5 km/h (2 Bft) 97,87 %
21.03.2017 03:22 9,7 C 8,9 C 7,8 C 93 % 15 lf 1005,0 hPa 0,0 l/m 0 min 0 min 0 W/m 14,6 km/h (3 Bft) 100,00 %
21.03.2017 03:24 9,7 C 8,9 C 7,8 C 93 % 15 lf 1005,1 hPa 0,0 l/m 0 min 0 min 0 W/m 16,7 km/h (3 Bft) 100,00 %
21.03.2017 03:26 9,7 C 8,9 C 7,8 C 93 % 15 lf 1005,1 hPa 0,0 l/m 0 min 0 min 0 W/m 16,7 km/h (3 Bft) 100,00 %
21.03.2017 03:28 9,7 C 8,9 C 7,8 C 93 % 15 lf 1005,1 hPa 0,0 l/m 0 min 0 min 0 W/m 8,4 km/h (2 Bft) 97,87 %
21.03.2017 03:30 9,7 C 8,9 C 7,8 C 93 % 15 lf 1005,0 hPa 0,0 l/m 0 min 0 min 0 W/m 12,6 km/h (3 Bft) 100,00 %
21.03.2017 03:32 9,7 C 8,9 C 7,2 C 93 % 15 lf 1005,0 hPa 0,0 l/m 0 min 0 min 0 W/m 10,5 km/h (2 Bft) 100,00 %
21.03.2017 03:34 9,6 C 8,9 C 7,2 C 93 % 15 lf 1005,0 hPa 0,0 l/m 0 min 0 min 0 W/m 16,7 km/h (3 Bft) 97,83 %
21.03.2017 03:36 9,6 C 8,9 C 7,8 C 93 % 15 lf 1005,0 hPa 0,0 l/m 0 min 0 min 0 W/m 16,7 km/h (3 Bft) 100,00 %
21.03.2017 03:38 9,6 C 8,9 C 7,8 C 93 % 15 lf 1004,9 hPa 0,0 l/m 0 min 0 min 0 W/m 10,5 km/h (2 Bft) 97,87 %
21.03.2017 03:40 9,6 C 8,9 C 7,8 C 93 % 15 lf 1004,9 hPa 0,0 l/m 0 min 0 min 0 W/m 16,7 km/h (3 Bft) 97,87 %
21.03.2017 03:42 9,6 C 8,9 C 7,8 C 93 % 15 lf 1005,0 hPa 0,0 l/m 0 min 0 min 0 W/m 8,4 km/h (2 Bft) 93,62 %
21.03.2017 03:44 9,6 C 9,4 C 7,8 C 93 % 15 lf 1004,9 hPa 0,0 l/m 0 min 0 min 0 W/m 14,6 km/h (3 Bft) 97,83 %
21.03.2017 03:46 9,6 C 8,9 C 7,8 C 93 % 15 lf 1004,9 hPa 0,0 l/m 0 min 0 min 0 W/m 12,6 km/h (3 Bft) 95,74 %
21.03.2017 03:48 9,6 C 8,9 C 7,8 C 93 % 15 lf 1004,9 hPa 0,0 l/m 0 min 0 min 0 W/m 12,6 km/h (3 Bft) 97,87 %
21.03.2017 03:50 9,6 C 8,9 C 7,8 C 93 % 15 lf 1005,0 hPa 0,0 l/m 0 min 0 min 0 W/m 12,6 km/h (3 Bft) 97,87 %
21.03.2017 03:52 9,6 C 9,4 C 7,8 C 93 % 15 lf 1005,0 hPa 0,0 l/m 0 min 0 min 0 W/m 14,6 km/h (3 Bft) 97,87 %
21.03.2017 03:54 9,6 C 9,4 C 7,8 C 93 % 15 lf 1004,9 hPa 0,0 l/m 0 min 0 min 0 W/m 18,8 km/h (3 Bft) 97,87 %
21.03.2017 03:56 9,6 C 9,4 C 7,8 C 93 % 15 lf 1005,0 hPa 0,0 l/m 0 min 0 min 0 W/m 16,7 km/h (3 Bft) 97,83 %
21.03.2017 03:58 9,6 C 9,4 C 7,8 C 93 % 15 lf 1005,0 hPa 0,0 l/m 0 min 0 min 0 W/m 23,0 km/h (4 Bft) 85,11 %
21.03.2017 04:00 9,6 C 9,4 C 7,8 C 93 % 15 lf 1005,0 hPa 0,0 l/m 0 min 0 min 0 W/m 20,9 km/h (4 Bft) 97,87 %
21.03.2017 04:02 9,6 C 9,4 C 7,8 C 93 % 15 lf 1005,0 hPa 0,0 l/m 0 min 0 min 0 W/m 20,9 km/h (4 Bft) 93,94 %
21.03.2017 04:04 9,6 C 9,4 C 7,8 C 93 % 15 lf 1005,0 hPa 0,0 l/m 0 min 0 min 0 W/m 18,8 km/h (3 Bft) 95,74 %
21.03.2017 04:06 9,6 C 9,4 C 7,8 C 93 % 15 lf 1005,0 hPa 0,0 l/m 0 min 0 min 0 W/m 23,0 km/h (4 Bft) 97,87 %
21.03.2017 04:08 9,6 C 9,4 C 7,2 C 93 % 15 lf 1004,9 hPa 0,0 l/m 0 min 0 min 0 W/m 23,0 km/h (4 Bft) 97,83 %
21.03.2017 04:10 9,6 C 9,4 C 7,2 C 93 % 15 lf 1005,0 hPa 0,0 l/m 0 min 0 min 0 W/m 18,8 km/h (3 Bft) 97,87 %
21.03.2017 04:12 9,6 C 9,4 C 7,2 C 93 % 15 lf 1005,0 hPa 0,0 l/m 0 min 0 min 0 W/m 12,6 km/h (3 Bft) 95,74 %
21.03.2017 04:14 9,6 C 8,9 C 7,2 C 93 % 15 lf 1005,0 hPa 0,0 l/m 0 min 0 min 0 W/m 14,6 km/h (3 Bft) 91,49 %
21.03.2017 04:16 9,6 C 8,9 C 7,2 C 93 % 15 lf 1005,0 hPa 0,0 l/m 0 min 0 min 0 W/m 16,7 km/h (3 Bft) 93,62 %
21.03.2017 04:18 9,6 C 8,9 C 7,2 C 93 % 15 lf 1005,0 hPa 0,0 l/m 0 min 0 min 0 W/m 23,0 km/h (4 Bft) 97,87 %
21.03.2017 04:20 9,6 C 8,9 C 7,2 C 93 % 14 lf 1005,0 hPa 0,0 l/m 0 min 0 min 0 W/m 14,6 km/h (3 Bft) 100,00 %
21.03.2017 04:22 9,6 C 8,9 C 7,2 C 93 % 14 lf 1005,0 hPa 0,0 l/m 0 min 0 min 0 W/m 12,6 km/h (3 Bft) 97,87 %
21.03.2017 04:24 9,6 C 8,9 C 7,2 C 93 % 13 lf 1005,0 hPa 0,0 l/m 0 min 0 min 0 W/m 18,8 km/h (3 Bft) 95,74 %
21.03.2017 04:26 9,6 C 8,9 C 7,2 C 93 % 12 lf 1005,0 hPa 0,0 l/m 0 min 0 min 0 W/m 25,1 km/h (4 Bft) 93,62 %
21.03.2017 04:28 9,6 C 9,4 C 7,2 C 93 % 9 lf 1005,0 hPa 0,0 l/m 0 min 0 min 0 W/m 18,8 km/h (3 Bft) 91,49 %
21.03.2017 04:30 9,6 C 9,4 C 7,2 C 93 % 7 lf 1005,0 hPa 0,0 l/m 0 min 0 min 0 W/m 23,0 km/h (4 Bft) 97,87 %
21.03.2017 04:32 9,6 C 9,4 C 7,2 C 92 % 4 lf 1005,0 hPa 0,0 l/m 0 min 0 min 0 W/m 14,6 km/h (3 Bft) 91,30 %
21.03.2017 04:34 9,6 C 9,4 C 7,2 C 92 % 3 lf 1004,9 hPa 0,0 l/m 0 min 0 min 0 W/m 16,7 km/h (3 Bft) 95,74 %
21.03.2017 04:36 9,6 C 9,4 C 7,2 C 92 % 2 lf 1005,0 hPa 0,0 l/m 0 min 0 min 0 W/m 23,0 km/h (4 Bft) 95,74 %
21.03.2017 04:38 9,6 C 9,4 C 7,2 C 92 % 1 lf 1004,9 hPa 0,0 l/m 0 min 0 min 0 W/m 20,9 km/h (4 Bft) 95,74 %
21.03.2017 04:40 9,6 C 9,4 C 7,8 C 92 % 0 lf 1005,0 hPa 0,0 l/m 0 min 0 min 0 W/m 25,1 km/h (4 Bft) 95,74 %
21.03.2017 04:42 9,7 C 9,4 C 7,8 C 92 % 0 lf 1005,0 hPa 0,0 l/m 0 min 0 min 0 W/m 25,1 km/h (4 Bft) 95,65 %
21.03.2017 04:44 9,7 C 9,4 C 7,8 C 92 % 0 lf 1005,1 hPa 0,0 l/m 0 min 0 min 0 W/m 20,9 km/h (4 Bft) 91,49 %
21.03.2017 04:46 9,7 C 9,4 C 7,8 C 92 % 0 lf 1005,1 hPa 0,0 l/m 0 min 0 min 0 W/m 23,0 km/h (4 Bft) 91,49 %
21.03.2017 04:48 9,7 C 9,4 C 7,8 C 92 % 0 lf 1005,2 hPa 0,0 l/m 0 min 0 min 0 W/m 27,2 km/h (4 Bft) 93,62 %
21.03.2017 04:50 9,7 C 9,4 C 7,8 C 92 % 0 lf 1005,2 hPa 0,0 l/m 0 min 0 min 0 W/m 20,9 km/h (4 Bft) 91,49 %
21.03.2017 04:52 9,7 C 9,4 C 7,8 C 92 % 0 lf 1005,2 hPa 0,0 l/m 0 min 0 min 0 W/m 25,1 km/h (4 Bft) 95,74 %
21.03.2017 04:54 9,7 C 9,4 C 7,8 C 92 % 0 lf 1005,2 hPa 0,0 l/m 0 min 0 min 0 W/m 18,8 km/h (3 Bft) 97,83 %
21.03.2017 04:56 9,7 C 9,4 C 7,8 C 92 % 0 lf 1005,3 hPa 0,0 l/m 0 min 0 min 0 W/m 23,0 km/h (4 Bft) 95,74 %
21.03.2017 04:58 9,7 C 9,4 C 7,8 C 92 % 0 lf 1005,3 hPa 0,0 l/m 0 min 0 min 0 W/m 23,0 km/h (4 Bft) 93,62 %
21.03.2017 05:00 9,7 C 9,4 C 7,8 C 92 % 0 lf 1005,2 hPa 0,0 l/m 0 min 0 min 0 W/m 20,9 km/h (4 Bft) 100,00 %
21.03.2017 05:02 9,7 C 9,4 C 7,8 C 92 % 0 lf 1005,3 hPa 0,0 l/m 0 min 0 min 0 W/m 23,0 km/h (4 Bft) 95,74 %
21.03.2017 05:04 9,7 C 9,4 C 7,8 C 92 % 0 lf 1005,4 hPa 0,0 l/m 0 min 0 min 0 W/m 18,8 km/h (3 Bft) 95,92 %
21.03.2017 05:06 9,7 C 9,4 C 7,8 C 92 % 1 lf 1005,4 hPa 0,0 l/m 0 min 0 min 0 W/m 23,0 km/h (4 Bft) 95,74 %
21.03.2017 05:08 9,7 C 9,4 C 7,8 C 92 % 0 lf 1005,4 hPa 0,0 l/m 0 min 0 min 0 W/m 25,1 km/h (4 Bft) 95,74 %
21.03.2017 05:10 9,7 C 10,0 C 7,8 C 92 % 2 lf 1005,4 hPa 0,0 l/m 0 min 0 min 0 W/m 18,8 km/h (3 Bft) 97,87 %
21.03.2017 05:12 9,7 C 10,0 C 7,8 C 92 % 13 lf 1005,3 hPa 0,0 l/m 0 min 0 min 0 W/m 18,8 km/h (3 Bft) 97,87 %
21.03.2017 05:14 9,7 C 10,0 C 7,8 C 92 % 14 lf 1005,4 hPa 0,0 l/m 0 min 2 min 0 W/m 14,6 km/h (3 Bft) 97,87 %
21.03.2017 05:16 9,7 C 10,0 C 7,8 C 92 % 14 lf 1005,4 hPa 0,0 l/m 0 min 0 min 0 W/m 14,6 km/h (3 Bft) 95,65 %
21.03.2017 05:18 9,8 C 10,0 C 7,8 C 92 % 13 lf 1005,4 hPa 0,0 l/m 0 min 0 min 0 W/m 27,2 km/h (4 Bft) 97,87 %
21.03.2017 05:20 9,7 C 10,0 C 7,8 C 92 % 13 lf 1005,3 hPa 0,0 l/m 0 min 0 min 0 W/m 18,8 km/h (3 Bft) 93,62 %
21.03.2017 05:22 9,7 C 10,0 C 7,8 C 92 % 12 lf 1005,2 hPa 0,0 l/m 0 min 0 min 0 W/m 25,1 km/h (4 Bft) 95,74 %
21.03.2017 05:24 9,7 C 10,0 C 7,8 C 91 % 10 lf 1005,3 hPa 0,0 l/m 0 min 0 min 0 W/m 25,1 km/h (4 Bft) 95,74 %
21.03.2017 05:26 9,7 C 10,0 C 7,8 C 92 % 8 lf 1005,4 hPa 0,0 l/m 0 min 0 min 0 W/m 27,2 km/h (4 Bft) 95,74 %
21.03.2017 05:28 9,7 C 10,0 C 7,8 C 92 % 4 lf 1005,4 hPa 0,0 l/m 0 min 0 min 0 W/m 23,0 km/h (4 Bft) 95,65 %
21.03.2017 05:30 9,7 C 10,0 C 7,8 C 91 % 3 lf 1005,5 hPa 0,0 l/m 0 min 0 min 0 W/m 23,0 km/h (4 Bft) 95,74 %
21.03.2017 05:32 9,7 C 10,0 C 7,8 C 91 % 3 lf 1005,5 hPa 0,0 l/m 0 min 0 min 0 W/m 25,1 km/h (4 Bft) 97,87 %
21.03.2017 05:34 9,7 C 10,0 C 7,8 C 91 % 2 lf 1005,5 hPa 0,0 l/m 0 min 0 min 0 W/m 14,6 km/h (3 Bft) 97,87 %
21.03.2017 05:36 9,7 C 9,4 C 7,8 C 91 % 1 lf 1005,4 hPa 0,0 l/m 0 min 0 min 0 W/m 14,6 km/h (3 Bft) 91,49 %
21.03.2017 05:38 9,7 C 9,4 C 7,8 C 91 % 0 lf 1005,4 hPa 0,0 l/m 0 min 0 min 0 W/m 25,1 km/h (4 Bft) 93,62 %
21.03.2017 05:40 9,7 C 9,4 C 7,8 C 91 % 0 lf 1005,6 hPa 0,0 l/m 0 min 0 min 0 W/m 16,7 km/h (3 Bft) 97,83 %
21.03.2017 05:42 9,6 C 9,4 C 7,8 C 91 % 0 lf 1005,6 hPa 0,0 l/m 0 min 0 min 0 W/m 25,1 km/h (4 Bft) 97,87 %
21.03.2017 05:44 9,6 C 9,4 C 7,8 C 91 % 0 lf 1005,6 hPa 0,0 l/m 0 min 0 min 0 W/m 20,9 km/h (4 Bft) 95,74 %
21.03.2017 05:46 9,6 C 9,4 C 7,8 C 91 % 0 lf 1005,7 hPa 0,0 l/m 0 min 0 min 0 W/m 20,9 km/h (4 Bft) 97,87 %
21.03.2017 05:48 9,6 C 9,4 C 7,8 C 91 % 0 lf 1005,6 hPa 0,0 l/m 0 min 0 min 0 W/m 18,8 km/h (3 Bft) 97,87 %
21.03.2017 05:50 9,6 C 9,4 C 7,2 C 91 % 0 lf 1005,7 hPa 0,0 l/m 0 min 0 min 0 W/m 18,8 km/h (3 Bft) 97,83 %
21.03.2017 05:52 9,6 C 9,4 C 7,2 C 91 % 0 lf 1005,7 hPa 0,0 l/m 0 min 0 min 0 W/m 14,6 km/h (3 Bft) 93,62 %
21.03.2017 05:54 9,6 C 9,4 C 7,2 C 91 % 0 lf 1005,6 hPa 0,0 l/m 0 min 0 min 0 W/m 16,7 km/h (3 Bft) 97,87 %
21.03.2017 05:56 9,6 C 9,4 C 7,2 C 91 % 0 lf 1005,7 hPa 0,0 l/m 0 min 0 min 0 W/m 20,9 km/h (4 Bft) 95,74 %
21.03.2017 05:58 9,5 C 9,4 C 7,2 C 91 % 0 lf 1005,8 hPa 0,0 l/m 0 min 0 min 0 W/m 20,9 km/h (4 Bft) 97,87 %
21.03.2017 06:00 9,5 C 9,4 C 7,2 C 91 % 0 lf 1005,8 hPa 0,0 l/m 0 min 0 min 0 W/m 23,0 km/h (4 Bft) 95,92 %
21.03.2017 06:02 9,5 C 9,4 C 7,2 C 91 % 0 lf 1005,8 hPa 0,0 l/m 0 min 0 min 0 W/m 16,7 km/h (3 Bft) 95,74 %
21.03.2017 06:04 9,4 C 9,4 C 7,2 C 91 % 0 lf 1005,8 hPa 0,0 l/m 0 min 0 min 0 W/m 18,8 km/h (3 Bft) 93,62 %
21.03.2017 06:06 9,4 C 9,4 C 7,2 C 91 % 0 lf 1005,8 hPa 0,0 l/m 0 min 0 min 0 W/m 27,2 km/h (4 Bft) 97,87 %
21.03.2017 06:08 9,4 C 9,4 C 7,2 C 91 % 0 lf 1005,8 hPa 0,0 l/m 0 min 0 min 0 W/m 16,7 km/h (3 Bft) 97,87 %
21.03.2017 06:10 9,4 C 9,4 C 7,2 C 91 % 0 lf 1005,9 hPa 0,0 l/m 0 min 0 min 0 W/m 27,2 km/h (4 Bft) 95,74 %
21.03.2017 06:12 9,4 C 9,4 C 7,2 C 91 % 0 lf 1005,9 hPa 0,0 l/m 0 min 0 min 0 W/m 18,8 km/h (3 Bft) 93,62 %
21.03.2017 06:14 9,3 C 9,4 C 7,2 C 91 % 0 lf 1005,9 hPa 0,0 l/m 0 min 0 min 0 W/m 23,0 km/h (4 Bft) 93,62 %
21.03.2017 06:16 9,3 C 9,4 C 7,2 C 91 % 0 lf 1005,9 hPa 0,0 l/m 0 min 0 min 0 W/m 27,2 km/h (4 Bft) 95,65 %
21.03.2017 06:18 9,3 C 9,4 C 7,2 C 91 % 0 lf 1005,9 hPa 0,0 l/m 0 min 0 min 0 W/m 27,2 km/h (4 Bft) 95,74 %
21.03.2017 06:20 9,3 C 9,4 C 7,2 C 91 % 0 lf 1005,9 hPa 0,0 l/m 0 min 0 min 0 W/m 20,9 km/h (4 Bft) 93,62 %
21.03.2017 06:22 9,3 C 9,4 C 7,2 C 91 % 0 lf 1006,0 hPa 0,0 l/m 0 min 0 min 0 W/m 23,0 km/h (4 Bft) 95,74 %
21.03.2017 06:24 9,2 C 9,4 C 7,2 C 91 % 0 lf 1006,0 hPa 0,0 l/m 0 min 0 min 5 W/m 20,9 km/h (4 Bft) 93,62 %
21.03.2017 06:26 9,2 C 8,9 C 7,2 C 90 % 0 lf 1006,0 hPa 0,0 l/m 0 min 0 min 5 W/m 16,7 km/h (3 Bft) 91,49 %
21.03.2017 06:28 9,2 C 8,9 C 7,2 C 90 % 0 lf 1006,1 hPa 0,0 l/m 0 min 0 min 5 W/m 23,0 km/h (4 Bft) 95,65 %
21.03.2017 06:30 9,1 C 8,9 C 6,7 C 90 % 0 lf 1006,1 hPa 0,0 l/m 0 min 0 min 5 W/m 20,9 km/h (4 Bft) 95,74 %
21.03.2017 06:32 9,1 C 8,9 C 6,7 C 90 % 0 lf 1006,1 hPa 0,0 l/m 0 min 0 min 5 W/m 27,2 km/h (4 Bft) 95,74 %
21.03.2017 06:34 9,0 C 8,9 C 6,7 C 90 % 0 lf 1006,1 hPa 0,0 l/m 0 min 0 min 7 W/m 20,9 km/h (4 Bft) 93,62 %
21.03.2017 06:36 9,0 C 8,9 C 6,7 C 90 % 0 lf 1006,0 hPa 0,0 l/m 0 min 0 min 7 W/m 20,9 km/h (4 Bft) 97,87 %
21.03.2017 06:38 8,9 C 8,9 C 6,7 C 89 % 0 lf 1006,2 hPa 0,0 l/m 0 min 0 min 9 W/m 20,9 km/h (4 Bft) 95,74 %
21.03.2017 06:40 8,9 C 8,3 C 6,7 C 89 % 0 lf 1006,1 hPa 0,0 l/m 0 min 0 min 10 W/m 12,6 km/h (3 Bft) 97,83 %
21.03.2017 06:42 8,9 C 8,3 C 6,7 C 89 % 0 lf 1006,2 hPa 0,0 l/m 0 min 0 min 12 W/m 14,6 km/h (3 Bft) 97,87 %
21.03.2017 06:44 8,8 C 8,3 C 6,7 C 89 % 0 lf 1006,2 hPa 0,0 l/m 0 min 0 min 12 W/m 18,8 km/h (3 Bft) 97,87 %
21.03.2017 06:46 8,8 C 8,3 C 6,7 C 89 % 0 lf 1006,2 hPa 0,0 l/m 0 min 0 min 15 W/m 14,6 km/h (3 Bft) 89,36 %
21.03.2017 06:48 8,8 C 8,3 C 6,7 C 89 % 0 lf 1006,2 hPa 0,0 l/m 0 min 0 min 16 W/m 14,6 km/h (3 Bft) 97,87 %
21.03.2017 06:50 8,8 C 8,3 C 6,7 C 89 % 0 lf 1006,2 hPa 0,0 l/m 0 min 0 min 17 W/m 16,7 km/h (3 Bft) 93,48 %
21.03.2017 06:52 8,7 C 8,9 C 6,7 C 89 % 0 lf 1006,2 hPa 0,0 l/m 0 min 0 min 18 W/m 16,7 km/h (3 Bft) 96,00 %
21.03.2017 06:54 8,7 C 8,9 C 6,7 C 89 % 0 lf 1006,2 hPa 0,0 l/m 0 min 0 min 18 W/m 14,6 km/h (3 Bft) 97,87 %
21.03.2017 06:56 8,7 C 8,9 C 6,7 C 89 % 0 lf 1006,2 hPa 0,0 l/m 0 min 0 min 19 W/m 18,8 km/h (3 Bft) 95,74 %
21.03.2017 06:58 8,7 C 8,9 C 6,7 C 89 % 0 lf 1006,2 hPa 0,0 l/m 0 min 0 min 21 W/m 14,6 km/h (3 Bft) 97,87 %
21.03.2017 07:00 8,7 C 8,9 C 6,7 C 89 % 0 lf 1006,1 hPa 0,0 l/m 0 min 0 min 21 W/m 12,6 km/h (3 Bft) 93,62 %
21.03.2017 07:02 8,7 C 8,9 C 6,7 C 89 % 0 lf 1006,1 hPa 0,0 l/m 0 min 0 min 20 W/m 12,6 km/h (3 Bft) 95,65 %
21.03.2017 07:04 8,7 C 8,9 C 6,7 C 89 % 0 lf 1006,1 hPa 0,0 l/m 0 min 0 min 19 W/m 12,6 km/h (3 Bft) 95,74 %
21.03.2017 07:06 8,7 C 8,3 C 6,7 C 89 % 0 lf 1006,1 hPa 0,0 l/m 0 min 0 min 21 W/m 8,4 km/h (2 Bft) 95,74 %
21.03.2017 07:08 8,7 C 8,3 C 6,7 C 90 % 0 lf 1006,2 hPa 0,0 l/m 0 min 0 min 24 W/m 8,4 km/h (2 Bft) 93,62 %
21.03.2017 07:10 8,6 C 8,3 C 6,7 C 90 % 0 lf 1006,2 hPa 0,0 l/m 0 min 0 min 27 W/m 8,4 km/h (2 Bft) 93,62 %
21.03.2017 07:12 8,6 C 8,3 C 6,7 C 90 % 0 lf 1006,2 hPa 0,0 l/m 0 min 0 min 28 W/m 10,5 km/h (2 Bft) 95,74 %
21.03.2017 07:14 8,6 C 8,3 C 6,7 C 90 % 0 lf 1006,2 hPa 0,0 l/m 0 min 0 min 28 W/m 10,5 km/h (2 Bft) 95,74 %
21.03.2017 07:16 8,6 C 8,3 C 6,7 C 90 % 0 lf 1006,2 hPa 0,0 l/m 0 min 0 min 28 W/m 8,4 km/h (2 Bft) 95,65 %
21.03.2017 07:18 8,6 C 8,3 C 6,7 C 89 % 0 lf 1006,2 hPa 0,0 l/m 0 min 0 min 30 W/m 12,6 km/h (3 Bft) 87,23 %
21.03.2017 07:20 8,6 C 8,9 C 6,7 C 90 % 0 lf 1006,3 hPa 0,0 l/m 0 min 0 min 30 W/m 12,6 km/h (3 Bft) 95,74 %
21.03.2017 07:22 8,6 C 8,9 C 6,7 C 90 % 0 lf 1006,3 hPa 0,0 l/m 0 min 0 min 29 W/m 12,6 km/h (3 Bft) 93,62 %
21.03.2017 07:24 8,6 C 8,9 C 6,7 C 90 % 0 lf 1006,3 hPa 0,0 l/m 0 min 0 min 28 W/m 10,5 km/h (2 Bft) 93,62 %
21.03.2017 07:26 8,6 C 8,9 C 6,7 C 90 % 0 lf 1006,2 hPa 0,0 l/m 0 min 0 min 31 W/m 14,6 km/h (3 Bft) 93,48 %
21.03.2017 07:28 8,6 C 8,9 C 6,7 C 90 % 0 lf 1006,3 hPa 0,0 l/m 0 min 0 min 34 W/m 8,4 km/h (2 Bft) 91,49 %
21.03.2017 07:30 8,5 C 8,9 C 6,7 C 90 % 0 lf 1006,3 hPa 0,0 l/m 0 min 0 min 42 W/m 8,4 km/h (2 Bft) 93,62 %
21.03.2017 07:32 8,6 C 8,9 C 7,2 C 90 % 0 lf 1006,3 hPa 0,0 l/m 0 min 0 min 51 W/m 10,5 km/h (2 Bft) 93,62 %
21.03.2017 07:34 8,5 C 8,9 C 7,2 C 90 % 0 lf 1006,3 hPa 0,0 l/m 0 min 0 min 56 W/m 6,3 km/h (2 Bft) 95,74 %
21.03.2017 07:36 8,6 C 9,4 C 7,2 C 90 % 0 lf 1006,3 hPa 0,0 l/m 0 min 0 min 56 W/m 10,5 km/h (2 Bft) 95,65 %
21.03.2017 07:38 8,6 C 9,4 C 7,2 C 90 % 0 lf 1006,3 hPa 0,0 l/m 0 min 0 min 61 W/m 12,6 km/h (3 Bft) 95,74 %
21.03.2017 07:40 8,6 C 9,4 C 7,2 C 90 % 0 lf 1006,2 hPa 0,0 l/m 0 min 0 min 67 W/m 10,5 km/h (2 Bft) 95,74 %
21.03.2017 07:42 8,6 C 9,4 C 7,2 C 90 % 0 lf 1006,3 hPa 0,0 l/m 0 min 0 min 71 W/m 8,4 km/h (2 Bft) 93,62 %
21.03.2017 07:44 8,6 C 9,4 C 7,8 C 90 % 0 lf 1006,3 hPa 0,0 l/m 0 min 0 min 75 W/m 16,7 km/h (3 Bft) 91,49 %
21.03.2017 07:46 8,6 C 9,4 C 7,8 C 90 % 0 lf 1006,4 hPa 0,0 l/m 0 min 0 min 82 W/m 14,6 km/h (3 Bft) 97,87 %
21.03.2017 07:48 8,6 C 10,0 C 7,8 C 90 % 0 lf 1006,4 hPa 0,0 l/m 2 min 0 min 93 W/m 14,6 km/h (3 Bft) 95,65 %
21.03.2017 07:50 8,7 C 10,0 C 7,8 C 90 % 0 lf 1006,4 hPa 0,0 l/m 2 min 0 min 105 W/m 12,6 km/h (3 Bft) 97,87 %
21.03.2017 07:52 8,7 C 10,0 C 8,3 C 90 % 0 lf 1006,4 hPa 0,0 l/m 2 min 0 min 116 W/m 12,6 km/h (3 Bft) 91,49 %
21.03.2017 07:54 8,7 C 10,6 C 8,3 C 90 % 0 lf 1006,4 hPa 0,0 l/m 2 min 0 min 127 W/m 12,6 km/h (3 Bft) 95,74 %
21.03.2017 07:56 8,7 C 10,6 C 8,3 C 90 % 0 lf 1006,3 hPa 0,0 l/m 2 min 0 min 122 W/m 12,6 km/h (3 Bft) 93,62 %
21.03.2017 07:58 8,8 C 10,6 C 8,3 C 91 % 0 lf 1006,3 hPa 0,0 l/m 2 min 0 min 116 W/m 16,7 km/h (3 Bft) 95,74 %
21.03.2017 08:00 8,8 C 10,6 C 8,3 C 90 % 0 lf 1006,3 hPa 0,0 l/m 2 min 0 min 117 W/m 12,6 km/h (3 Bft) 95,65 %
21.03.2017 08:02 8,8 C 10,6 C 8,3 C 91 % 0 lf 1006,4 hPa 0,0 l/m 2 min 0 min 120 W/m 12,6 km/h (3 Bft) 95,45 %
21.03.2017 08:04 8,9 C 10,6 C 8,3 C 91 % 0 lf 1006,3 hPa 0,0 l/m 2 min 0 min 119 W/m 16,7 km/h (3 Bft) 96,00 %
21.03.2017 08:06 8,9 C 10,6 C 8,3 C 91 % 0 lf 1006,4 hPa 0,0 l/m 2 min 0 min 126 W/m 18,8 km/h (3 Bft) 95,74 %
21.03.2017 08:08 9,0 C 11,1 C 8,3 C 90 % 0 lf 1006,4 hPa 0,0 l/m 2 min 0 min 128 W/m 12,6 km/h (3 Bft) 97,87 %
21.03.2017 08:10 9,0 C 10,6 C 8,9 C 90 % 0 lf 1006,5 hPa 0,0 l/m 2 min 0 min 123 W/m 18,8 km/h (3 Bft) 97,83 %
21.03.2017 08:12 9,1 C 10,6 C 8,9 C 90 % 0 lf 1006,6 hPa 0,0 l/m 0 min 0 min 114 W/m 14,6 km/h (3 Bft) 97,87 %
21.03.2017 08:14 9,1 C 10,6 C 8,9 C 90 % 0 lf 1006,5 hPa 0,0 l/m 0 min 0 min 109 W/m 18,8 km/h (3 Bft) 95,74 %
21.03.2017 08:16 9,1 C 10,6 C 8,9 C 90 % 0 lf 1006,6 hPa 0,0 l/m 0 min 0 min 111 W/m 20,9 km/h (4 Bft) 93,62 %
21.03.2017 08:18 9,2 C 10,6 C 8,9 C 90 % 0 lf 1006,6 hPa 0,0 l/m 0 min 0 min 110 W/m 18,8 km/h (3 Bft) 97,87 %
21.03.2017 08:20 9,2 C 10,6 C 8,9 C 90 % 0 lf 1006,6 hPa 0,0 l/m 0 min 0 min 108 W/m 20,9 km/h (4 Bft) 93,48 %
21.03.2017 08:22 9,2 C 10,6 C 8,9 C 90 % 0 lf 1006,6 hPa 0,0 l/m 0 min 0 min 111 W/m 16,7 km/h (3 Bft) 97,87 %
21.03.2017 08:24 9,2 C 10,6 C 8,9 C 90 % 0 lf 1006,6 hPa 0,0 l/m 0 min 0 min 118 W/m 20,9 km/h (4 Bft) 95,74 %
21.03.2017 08:26 9,2 C 10,6 C 8,9 C 90 % 0 lf 1006,6 hPa 0,0 l/m 0 min 0 min 120 W/m 23,0 km/h (4 Bft) 89,36 %
21.03.2017 08:28 9,3 C 10,6 C 8,9 C 90 % 0 lf 1006,6 hPa 0,0 l/m 0 min 0 min 120 W/m 20,9 km/h (4 Bft) 95,74 %
21.03.2017 08:30 9,3 C 10,6 C 8,9 C 90 % 0 lf 1006,6 hPa 0,0 l/m 0 min 0 min 121 W/m 20,9 km/h (4 Bft) 97,87 %
21.03.2017 08:32 9,3 C 10,6 C 8,9 C 90 % 0 lf 1006,6 hPa 0,0 l/m 0 min 0 min 125 W/m 18,8 km/h (3 Bft) 97,87 %
21.03.2017 08:34 9,4 C 10,6 C 8,9 C 90 % 0 lf 1006,6 hPa 0,0 l/m 0 min 0 min 128 W/m 18,8 km/h (3 Bft) 95,65 %
21.03.2017 08:36 9,4 C 11,1 C 9,4 C 90 % 0 lf 1006,7 hPa 0,0 l/m 0 min 0 min 149 W/m 14,6 km/h (3 Bft) 97,87 %
21.03.2017 08:38 9,4 C 11,1 C 9,4 C 90 % 0 lf 1006,7 hPa 0,0 l/m 2 min 0 min 183 W/m 16,7 km/h (3 Bft) 100,00 %
21.03.2017 08:40 9,4 C 11,7 C 9,4 C 90 % 0 lf 1006,7 hPa 0,0 l/m 2 min 0 min 166 W/m 16,7 km/h (3 Bft) 100,00 %
21.03.2017 08:42 9,5 C 11,1 C 9,4 C 90 % 0 lf 1006,7 hPa 0,0 l/m 0 min 0 min 139 W/m 23,0 km/h (4 Bft) 95,74 %
21.03.2017 08:44 9,5 C 11,1 C 9,4 C 90 % 0 lf 1006,7 hPa 0,0 l/m 0 min 0 min 110 W/m 16,7 km/h (3 Bft) 97,87 %
21.03.2017 08:46 9,6 C 11,1 C 9,4 C 90 % 0 lf 1006,7 hPa 0,0 l/m 0 min 0 min 112 W/m 20,9 km/h (4 Bft) 100,00 %
21.03.2017 08:48 9,6 C 11,1 C 9,4 C 90 % 0 lf 1006,7 hPa 0,0 l/m 0 min 0 min 125 W/m 16,7 km/h (3 Bft) 100,00 %
21.03.2017 08:50 9,6 C 11,1 C 9,4 C 90 % 0 lf 1006,7 hPa 0,0 l/m 0 min 0 min 133 W/m 18,8 km/h (3 Bft) 100,00 %
21.03.2017 08:52 9,6 C 11,1 C 9,4 C 90 % 0 lf 1006,7 hPa 0,0 l/m 0 min 0 min 133 W/m 14,6 km/h (3 Bft) 95,74 %
21.03.2017 08:54 9,6 C 11,1 C 9,4 C 90 % 0 lf 1006,7 hPa 0,0 l/m 0 min 0 min 141 W/m 20,9 km/h (4 Bft) 100,00 %
21.03.2017 08:56 9,7 C 11,1 C 9,4 C 89 % 0 lf 1006,7 hPa 0,0 l/m 0 min 0 min 142 W/m 20,9 km/h (4 Bft) 97,83 %
21.03.2017 08:58 9,7 C 11,1 C 9,4 C 89 % 0 lf 1006,7 hPa 0,0 l/m 0 min 0 min 129 W/m 23,0 km/h (4 Bft) 100,00 %
21.03.2017 09:00 9,7 C 11,1 C 9,4 C 89 % 0 lf 1006,8 hPa 0,0 l/m 0 min 0 min 118 W/m 23,0 km/h (4 Bft) 97,87 %
21.03.2017 09:03 9,7 C 10,6 C 9,4 C 89 % 0 lf 1006,8 hPa 0,0 l/m 0 min 0 min 114 W/m 31,4 km/h (5 Bft) 100,00 %
21.03.2017 09:04 9,7 C 10,6 C 9,4 C 89 % 0 lf 1006,8 hPa 0,0 l/m 0 min 0 min 122 W/m 27,2 km/h (4 Bft) 100,00 %
21.03.2017 09:06 9,7 C 10,6 C 9,4 C 89 % 0 lf 1006,7 hPa 0,0 l/m 0 min 0 min 136 W/m 23,0 km/h (4 Bft) 100,00 %
21.03.2017 09:08 9,7 C 11,1 C 9,4 C 89 % 0 lf 1006,7 hPa 0,0 l/m 0 min 0 min 153 W/m 25,1 km/h (4 Bft) 100,00 %
21.03.2017 09:10 9,8 C 11,1 C 9,4 C 89 % 0 lf 1006,7 hPa 0,0 l/m 0 min 0 min 171 W/m 16,7 km/h (3 Bft) 95,65 %
21.03.2017 09:12 9,8 C 11,1 C 10,0 C 88 % 0 lf 1006,7 hPa 0,0 l/m 0 min 0 min 157 W/m 23,0 km/h (4 Bft) 97,87 %
21.03.2017 09:14 9,8 C 11,1 C 9,4 C 88 % 0 lf 1006,7 hPa 0,0 l/m 0 min 0 min 115 W/m 25,1 km/h (4 Bft) 100,00 %
21.03.2017 09:16 9,8 C 10,6 C 9,4 C 88 % 1 lf 1006,7 hPa 0,0 l/m 0 min 2 min 75 W/m 25,1 km/h (4 Bft) 87,23 %
21.03.2017 09:18 9,8 C 10,6 C 8,9 C 88 % 1 lf 1006,8 hPa 0,2 l/m 0 min 0 min 47 W/m 27,2 km/h (4 Bft) 97,87 %
21.03.2017 09:20 9,8 C 10,0 C 8,9 C 88 % 14 lf 1006,9 hPa 0,0 l/m 0 min 2 min 26 W/m 23,0 km/h (4 Bft) 97,87 %
21.03.2017 09:22 9,8 C 9,4 C 7,8 C 88 % 15 lf 1007,0 hPa 0,0 l/m 0 min 2 min 20 W/m 33,5 km/h (5 Bft) 97,83 %
21.03.2017 09:24 9,7 C 8,3 C 7,2 C 88 % 15 lf 1007,2 hPa 0,0 l/m 0 min 2 min 19 W/m 33,5 km/h (5 Bft) 97,87 %
21.03.2017 09:26 9,5 C 7,8 C 6,1 C 87 % 15 lf 1007,6 hPa 0,4 l/m 0 min 2 min 24 W/m 41,8 km/h (6 Bft) 97,87 %
21.03.2017 09:28 9,2 C 6,7 C 5,6 C 87 % 15 lf 1007,5 hPa 0,2 l/m 0 min 2 min 26 W/m 29,3 km/h (5 Bft) 97,87 %
21.03.2017 09:30 9,0 C 6,7 C 5,6 C 86 % 15 lf 1007,3 hPa 0,0 l/m 0 min 2 min 29 W/m 25,1 km/h (4 Bft) 95,74 %
21.03.2017 09:32 8,8 C 6,7 C 5,6 C 86 % 15 lf 1007,3 hPa 0,0 l/m 0 min 2 min 44 W/m 18,8 km/h (3 Bft) 93,62 %
21.03.2017 09:34 8,7 C 6,7 C 5,6 C 86 % 15 lf 1007,2 hPa 0,2 l/m 0 min 2 min 61 W/m 16,7 km/h (3 Bft) 91,30 %
21.03.2017 09:36 8,4 C 6,7 C 5,6 C 86 % 15 lf 1007,2 hPa 0,0 l/m 0 min 2 min 76 W/m 18,8 km/h (3 Bft) 97,87 %
21.03.2017 09:38 8,3 C 6,7 C 5,6 C 86 % 15 lf 1007,2 hPa 0,0 l/m 0 min 0 min 109 W/m 14,6 km/h (3 Bft) 97,87 %
21.03.2017 09:40 8,2 C 7,2 C 6,1 C 86 % 15 lf 1007,3 hPa 0,0 l/m 0 min 0 min 124 W/m 16,7 km/h (3 Bft) 95,74 %
21.03.2017 09:42 8,1 C 7,2 C 6,1 C 87 % 15 lf 1007,3 hPa 0,0 l/m 0 min 0 min 134 W/m 16,7 km/h (3 Bft) 95,74 %
21.03.2017 09:44 8,1 C 7,2 C 6,7 C 87 % 15 lf 1007,3 hPa 0,0 l/m 0 min 0 min 160 W/m 23,0 km/h (4 Bft) 97,87 %
21.03.2017 09:46 8,0 C 7,8 C 6,7 C 88 % 15 lf 1007,3 hPa 0,0 l/m 0 min 0 min 177 W/m 25,1 km/h (4 Bft) 93,48 %
21.03.2017 09:48 7,9 C 7,8 C 6,7 C 88 % 15 lf 1007,2 hPa 0,0 l/m 0 min 2 min 186 W/m 20,9 km/h (4 Bft) 97,87 %
21.03.2017 09:50 7,9 C 8,3 C 6,7 C 88 % 15 lf 1007,3 hPa 0,0 l/m 0 min 2 min 172 W/m 20,9 km/h (4 Bft) 91,49 %
21.03.2017 09:52 7,9 C 7,8 C 6,7 C 89 % 15 lf 1007,4 hPa 0,0 l/m 0 min 2 min 125 W/m 18,8 km/h (3 Bft) 95,74 %
21.03.2017 09:54 7,9 C 7,8 C 6,7 C 89 % 15 lf 1007,5 hPa 0,0 l/m 0 min 2 min 108 W/m 20,9 km/h (4 Bft) 95,74 %
21.03.2017 09:56 7,9 C 7,8 C 6,1 C 89 % 15 lf 1007,5 hPa 0,0 l/m 0 min 2 min 139 W/m 31,4 km/h (5 Bft) 86,84 %
21.03.2017 09:58 7,9 C 7,8 C 6,7 C 89 % 15 lf 1007,6 hPa 0,0 l/m 0 min 2 min 182 W/m 20,9 km/h (4 Bft) 95,65 %
21.03.2017 10:00 7,9 C 7,8 C 6,7 C 90 % 15 lf 1007,6 hPa 0,0 l/m 0 min 2 min 234 W/m 29,3 km/h (5 Bft) 90,00 %
21.03.2017 10:02 7,9 C 7,8 C 6,7 C 90 % 15 lf 1007,6 hPa 0,0 l/m 0 min 2 min 225 W/m 31,4 km/h (5 Bft) 89,36 %
21.03.2017 10:04 7,9 C 7,8 C 6,7 C 90 % 15 lf 1007,6 hPa 0,0 l/m 0 min 2 min 173 W/m 39,7 km/h (6 Bft) 93,62 %
21.03.2017 10:06 7,9 C 7,8 C 6,7 C 90 % 15 lf 1007,6 hPa 0,0 l/m 0 min 2 min 113 W/m 31,4 km/h (5 Bft) 91,49 %
21.03.2017 10:08 7,9 C 7,2 C 6,7 C 90 % 15 lf 1007,6 hPa 0,0 l/m 0 min 2 min 69 W/m 33,5 km/h (5 Bft) 86,96 %
21.03.2017 10:10 7,9 C 7,2 C 6,1 C 90 % 15 lf 1007,6 hPa 0,0 l/m 0 min 2 min 74 W/m 23,0 km/h (4 Bft) 89,36 %
21.03.2017 10:12 7,9 C 7,8 C 6,7 C 91 % 15 lf 1007,7 hPa 0,0 l/m 0 min 2 min 75 W/m 25,1 km/h (4 Bft) 91,49 %
21.03.2017 10:14 7,9 C 7,2 C 6,1 C 91 % 15 lf 1007,7 hPa 0,0 l/m 0 min 2 min 63 W/m 27,2 km/h (4 Bft) 91,49 %
21.03.2017 10:16 7,9 C 7,2 C 6,1 C 91 % 15 lf 1007,7 hPa 0,0 l/m 0 min 2 min 61 W/m 23,0 km/h (4 Bft) 91,49 %
21.03.2017 10:18 7,9 C 7,2 C 6,7 C 91 % 15 lf 1007,7 hPa 0,0 l/m 0 min 2 min 87 W/m 25,1 km/h (4 Bft) 89,36 %
21.03.2017 10:20 7,9 C 7,8 C 6,7 C 91 % 15 lf 1007,7 hPa 0,0 l/m 0 min 2 min 92 W/m 18,8 km/h (3 Bft) 91,30 %
21.03.2017 10:22 7,9 C 7,8 C 6,7 C 91 % 15 lf 1007,7 hPa 0,0 l/m 0 min 2 min 89 W/m 25,1 km/h (4 Bft) 91,49 %
21.03.2017 10:24 7,9 C 7,8 C 6,7 C 91 % 15 lf 1007,7 hPa 0,0 l/m 0 min 2 min 95 W/m 27,2 km/h (4 Bft) 89,36 %
21.03.2017 10:26 7,9 C 7,8 C 6,7 C 91 % 15 lf 1007,7 hPa 0,0 l/m 0 min 2 min 120 W/m 18,8 km/h (3 Bft) 89,36 %
21.03.2017 10:28 8,0 C 7,8 C 6,7 C 91 % 15 lf 1007,6 hPa 0,0 l/m 0 min 2 min 155 W/m 20,9 km/h (4 Bft) 89,36 %
21.03.2017 10:30 8,0 C 8,3 C 7,2 C 91 % 15 lf 1007,7 hPa 0,0 l/m 0 min 2 min 160 W/m 18,8 km/h (3 Bft) 89,36 %
21.03.2017 10:32 8,1 C 8,3 C 7,2 C 91 % 15 lf 1007,6 hPa 0,0 l/m 0 min 2 min 194 W/m 25,1 km/h (4 Bft) 89,13 %
21.03.2017 10:34 8,1 C 8,9 C 7,2 C 91 % 15 lf 1007,7 hPa 0,0 l/m 0 min 2 min 208 W/m 29,3 km/h (5 Bft) 95,74 %
21.03.2017 10:36 8,1 C 8,9 C 7,2 C 91 % 15 lf 1007,6 hPa 0,0 l/m 0 min 2 min 222 W/m 23,0 km/h (4 Bft) 93,62 %
21.03.2017 10:38 8,2 C 9,4 C 7,2 C 92 % 15 lf 1007,6 hPa 0,0 l/m 0 min 2 min 232 W/m 23,0 km/h (4 Bft) 93,62 %
21.03.2017 10:40 8,2 C 10,0 C 7,8 C 92 % 15 lf 1007,6 hPa 0,0 l/m 0 min 2 min 269 W/m 23,0 km/h (4 Bft) 93,62 %
21.03.2017 10:42 8,3 C 10,0 C 7,8 C 92 % 14 lf 1007,6 hPa 0,0 l/m 2 min 0 min 278 W/m 18,8 km/h (3 Bft) 95,65 %
21.03.2017 10:44 8,4 C 10,0 C 7,8 C 92 % 13 lf 1007,7 hPa 0,0 l/m 0 min 2 min 263 W/m 29,3 km/h (5 Bft) 97,87 %
21.03.2017 10:46 8,5 C 10,6 C 8,3 C 92 % 12 lf 1007,7 hPa 0,0 l/m 2 min 2 min 361 W/m 25,1 km/h (4 Bft) 97,87 %
21.03.2017 10:48 8,6 C 11,7 C 8,9 C 92 % 9 lf 1007,7 hPa 0,0 l/m 2 min 0 min 424 W/m 23,0 km/h (4 Bft) 95,74 %
21.03.2017 10:50 8,7 C 13,3 C 10,0 C 92 % 5 lf 1007,7 hPa 0,0 l/m 2 min 0 min 429 W/m 16,7 km/h (3 Bft) 95,74 %
21.03.2017 10:52 8,9 C 12,8 C 10,0 C 92 % 3 lf 1007,7 hPa 0,0 l/m 2 min 2 min 432 W/m 20,9 km/h (4 Bft) 97,87 %
21.03.2017 10:54 9,1 C 11,7 C 8,9 C 92 % 0 lf 1007,8 hPa 0,0 l/m 2 min 0 min 312 W/m 25,1 km/h (4 Bft) 100,00 %
21.03.2017 10:56 9,2 C 11,7 C 8,9 C 92 % 0 lf 1007,7 hPa 0,0 l/m 2 min 0 min 285 W/m 20,9 km/h (4 Bft) 97,87 %
21.03.2017 10:58 9,2 C 11,7 C 8,9 C 91 % 0 lf 1007,7 hPa 0,0 l/m 0 min 0 min 269 W/m 16,7 km/h (3 Bft) 95,74 %
21.03.2017 11:00 9,3 C 11,7 C 8,9 C 91 % 0 lf 1007,7 hPa 0,0 l/m 0 min 0 min 252 W/m 20,9 km/h (4 Bft) 95,74 %
21.03.2017 11:02 9,4 C 10,6 C 8,3 C 91 % 0 lf 1007,7 hPa 0,0 l/m 0 min 0 min 220 W/m 27,2 km/h (4 Bft) 97,87 %
21.03.2017 11:04 9,4 C 10,6 C 8,3 C 90 % 0 lf 1007,8 hPa 0,0 l/m 0 min 0 min 189 W/m 27,2 km/h (4 Bft) 100,00 %
21.03.2017 11:06 9,4 C 10,0 C 8,3 C 90 % 0 lf 1007,9 hPa 0,0 l/m 0 min 0 min 191 W/m 25,1 km/h (4 Bft) 95,74 %
21.03.2017 11:08 9,5 C 10,0 C 8,3 C 89 % 0 lf 1007,9 hPa 0,0 l/m 0 min 0 min 182 W/m 18,8 km/h (3 Bft) 100,00 %
21.03.2017 11:10 9,6 C 10,0 C 8,3 C 89 % 0 lf 1007,9 hPa 0,0 l/m 0 min 0 min 184 W/m 20,9 km/h (4 Bft) 100,00 %
21.03.2017 11:12 9,6 C 10,0 C 8,3 C 89 % 0 lf 1007,8 hPa 0,0 l/m 0 min 0 min 192 W/m 25,1 km/h (4 Bft) 97,87 %
21.03.2017 11:14 9,6 C 10,0 C 8,3 C 88 % 0 lf 1007,8 hPa 0,0 l/m 0 min 0 min 203 W/m 20,9 km/h (4 Bft) 97,87 %
21.03.2017 11:16 9,6 C 10,6 C 8,3 C 88 % 0 lf 1007,8 hPa 0,0 l/m 0 min 0 min 233 W/m 20,9 km/h (4 Bft) 100,00 %
21.03.2017 11:18 9,6 C 10,0 C 8,3 C 87 % 0 lf 1007,8 hPa 0,0 l/m 0 min 0 min 245 W/m 31,4 km/h (5 Bft) 100,00 %
21.03.2017 11:20 9,7 C 10,0 C 8,3 C 87 % 0 lf 1008,0 hPa 0,0 l/m 0 min 0 min 255 W/m 29,3 km/h (5 Bft) 97,83 %
21.03.2017 11:22 9,7 C 10,0 C 8,3 C 86 % 0 lf 1008,0 hPa 0,0 l/m 0 min 0 min 244 W/m 25,1 km/h (4 Bft) 97,87 %
21.03.2017 11:24 9,7 C 10,0 C 8,3 C 86 % 0 lf 1007,9 hPa 0,0 l/m 0 min 0 min 219 W/m 25,1 km/h (4 Bft) 97,87 %
21.03.2017 11:26 9,7 C 10,6 C 8,3 C 85 % 0 lf 1007,9 hPa 0,0 l/m 0 min 0 min 201 W/m 25,1 km/h (4 Bft) 100,00 %
21.03.2017 11:28 9,8 C 10,6 C 8,9 C 86 % 0 lf 1007,9 hPa 0,0 l/m 0 min 0 min 238 W/m 20,9 km/h (4 Bft) 100,00 %
21.03.2017 11:30 9,8 C 11,7 C 8,9 C 86 % 0 lf 1007,8 hPa 0,0 l/m 2 min 0 min 343 W/m 18,8 km/h (3 Bft) 100,00 %
21.03.2017 11:32 9,9 C 12,2 C 9,4 C 86 % 0 lf 1007,8 hPa 0,0 l/m 2 min 0 min 378 W/m 27,2 km/h (4 Bft) 97,83 %
21.03.2017 11:34 9,9 C 12,2 C 9,4 C 85 % 0 lf 1007,8 hPa 0,0 l/m 2 min 0 min 380 W/m 25,1 km/h (4 Bft) 97,87 %
21.03.2017 11:36 10,0 C 12,8 C 10,0 C 85 % 0 lf 1007,8 hPa 0,0 l/m 2 min 0 min 429 W/m 23,0 km/h (4 Bft) 100,00 %
21.03.2017 11:38 10,1 C 14,4 C 10,0 C 85 % 0 lf 1007,9 hPa 0,0 l/m 2 min 0 min 495 W/m 27,2 km/h (4 Bft) 100,00 %
21.03.2017 11:40 10,3 C 15,0 C 10,0 C 85 % 0 lf 1007,9 hPa 0,0 l/m 2 min 0 min 429 W/m 27,2 km/h (4 Bft) 95,74 %
21.03.2017 11:42 10,4 C 14,4 C 10,0 C 84 % 0 lf 1008,0 hPa 0,0 l/m 0 min 0 min 266 W/m 25,1 km/h (4 Bft) 95,74 %
21.03.2017 11:44 10,4 C 13,9 C 9,4 C 84 % 0 lf 1008,0 hPa 0,0 l/m 0 min 0 min 177 W/m 14,6 km/h (3 Bft) 100,00 %
21.03.2017 11:46 10,5 C 12,8 C 9,4 C 83 % 0 lf 1007,9 hPa 0,0 l/m 0 min 0 min 141 W/m 20,9 km/h (4 Bft) 100,00 %
21.03.2017 11:48 10,5 C 12,2 C 8,9 C 83 % 0 lf 1008,1 hPa 0,0 l/m 0 min 0 min 135 W/m 20,9 km/h (4 Bft) 100,00 %
21.03.2017 11:50 10,5 C 11,7 C 8,9 C 83 % 0 lf 1008,1 hPa 0,0 l/m 0 min 0 min 139 W/m 23,0 km/h (4 Bft) 100,00 %
21.03.2017 11:52 10,4 C 11,7 C 8,9 C 82 % 0 lf 1008,1 hPa 0,0 l/m 0 min 0 min 136 W/m 20,9 km/h (4 Bft) 93,62 %
21.03.2017 11:54 10,4 C 11,1 C 8,9 C 82 % 0 lf 1008,1 hPa 0,0 l/m 0 min 0 min 154 W/m 29,3 km/h (5 Bft) 97,87 %
21.03.2017 11:56 10,4 C 11,7 C 8,9 C 80 % 0 lf 1008,2 hPa 0,0 l/m 0 min 0 min 179 W/m 16,7 km/h (3 Bft) 97,83 %
21.03.2017 11:58 10,4 C 11,7 C 8,9 C 80 % 0 lf 1008,1 hPa 0,0 l/m 0 min 0 min 230 W/m 20,9 km/h (4 Bft) 95,74 %
21.03.2017 12:00 10,4 C 12,2 C 9,4 C 80 % 0 lf 1008,2 hPa 0,0 l/m 0 min 0 min 295 W/m 25,1 km/h (4 Bft) 95,45 %
21.03.2017 12:02 10,4 C 12,2 C 9,4 C 80 % 0 lf 1008,2 hPa 0,0 l/m 0 min 0 min 224 W/m 23,0 km/h (4 Bft) 97,87 %
21.03.2017 12:04 10,4 C 12,2 C 8,9 C 80 % 0 lf 1008,2 hPa 0,0 l/m 0 min 0 min 182 W/m 27,2 km/h (4 Bft) 95,74 %
21.03.2017 12:06 10,4 C 12,2 C 8,9 C 79 % 0 lf 1008,2 hPa 0,0 l/m 0 min 0 min 149 W/m 14,6 km/h (3 Bft) 95,65 %
21.03.2017 12:08 10,4 C 11,7 C 8,9 C 80 % 0 lf 1008,3 hPa 0,0 l/m 0 min 0 min 142 W/m 18,8 km/h (3 Bft) 93,62 %
21.03.2017 12:10 10,4 C 11,7 C 8,9 C 79 % 0 lf 1008,3 hPa 0,0 l/m 0 min 0 min 191 W/m 25,1 km/h (4 Bft) 97,87 %
21.03.2017 12:12 10,4 C 12,2 C 9,4 C 79 % 0 lf 1008,3 hPa 0,0 l/m 0 min 0 min 230 W/m 23,0 km/h (4 Bft) 97,87 %
21.03.2017 12:14 10,4 C 12,8 C 10,0 C 79 % 0 lf 1008,3 hPa 0,0 l/m 0 min 0 min 242 W/m 16,7 km/h (3 Bft) 97,87 %
21.03.2017 12:16 10,4 C 13,9 C 10,0 C 79 % 0 lf 1008,3 hPa 0,0 l/m 2 min 0 min 341 W/m 29,3 km/h (5 Bft) 93,62 %
21.03.2017 12:18 10,4 C 13,9 C 10,6 C 78 % 0 lf 1008,4 hPa 0,0 l/m 2 min 0 min 342 W/m 31,4 km/h (5 Bft) 97,83 %
21.03.2017 12:20 10,5 C 13,9 C 10,6 C 76 % 0 lf 1008,4 hPa 0,0 l/m 2 min 0 min 319 W/m 33,5 km/h (5 Bft) 95,74 %
21.03.2017 12:22 10,5 C 13,3 C 10,6 C 76 % 0 lf 1008,4 hPa 0,0 l/m 0 min 0 min 273 W/m 39,7 km/h (6 Bft) 93,62 %
21.03.2017 12:24 10,6 C 13,3 C 10,6 C 75 % 0 lf 1008,4 hPa 0,0 l/m 0 min 0 min 245 W/m 27,2 km/h (4 Bft) 93,62 %
21.03.2017 12:26 10,6 C 12,8 C 10,6 C 74 % 0 lf 1008,4 hPa 0,0 l/m 0 min 0 min 244 W/m 23,0 km/h (4 Bft) 97,87 %
21.03.2017 12:28 10,6 C 13,3 C 10,6 C 72 % 0 lf 1008,4 hPa 0,0 l/m 0 min 0 min 308 W/m 37,7 km/h (5 Bft) 100,00 %
21.03.2017 12:30 10,6 C 13,9 C 11,1 C 70 % 0 lf 1008,3 hPa 0,0 l/m 2 min 0 min 375 W/m 29,3 km/h (5 Bft) 97,87 %
21.03.2017 12:32 10,6 C 13,9 C 11,1 C 69 % 0 lf 1008,3 hPa 0,0 l/m 2 min 0 min 347 W/m 29,3 km/h (5 Bft) 97,87 %
21.03.2017 12:34 10,6 C 13,9 C 11,1 C 69 % 0 lf 1008,5 hPa 0,0 l/m 2 min 0 min 359 W/m 29,3 km/h (5 Bft) 95,74 %
21.03.2017 12:36 10,7 C 14,4 C 11,7 C 70 % 0 lf 1008,5 hPa 0,0 l/m 2 min 0 min 361 W/m 14,6 km/h (3 Bft) 100,00 %
21.03.2017 12:38 10,7 C 15,0 C 12,2 C 70 % 0 lf 1008,5 hPa 0,0 l/m 2 min 0 min 374 W/m 23,0 km/h (4 Bft) 100,00 %
21.03.2017 12:40 10,8 C 15,0 C 12,2 C 70 % 0 lf 1008,5 hPa 0,0 l/m 2 min 0 min 472 W/m 31,4 km/h (5 Bft) 97,83 %
21.03.2017 12:42 10,9 C 15,6 C 12,2 C 70 % 0 lf 1008,4 hPa 0,0 l/m 2 min 0 min 444 W/m 31,4 km/h (5 Bft) 95,74 %
21.03.2017 12:44 10,9 C 15,6 C 11,7 C 69 % 0 lf 1008,4 hPa 0,0 l/m 2 min 0 min 414 W/m 33,5 km/h (5 Bft) 97,87 %
21.03.2017 12:46 11,0 C 15,6 C 12,2 C 68 % 0 lf 1008,4 hPa 0,0 l/m 2 min 0 min 450 W/m 25,1 km/h (4 Bft) 97,87 %
21.03.2017 12:48 11,1 C 15,6 C 12,2 C 69 % 0 lf 1008,5 hPa 0,0 l/m 2 min 0 min 474 W/m 27,2 km/h (4 Bft) 97,87 %
21.03.2017 12:50 11,2 C 16,1 C 12,2 C 69 % 0 lf 1008,5 hPa 0,0 l/m 2 min 0 min 499 W/m 25,1 km/h (4 Bft) 93,62 %
21.03.2017 12:52 11,3 C 17,8 C 12,8 C 69 % 0 lf 1008,5 hPa 0,0 l/m 2 min 0 min 582 W/m 20,9 km/h (4 Bft) 95,65 %
21.03.2017 12:54 11,4 C 18,3 C 12,8 C 69 % 0 lf 1008,5 hPa 0,0 l/m 2 min 0 min 627 W/m 31,4 km/h (5 Bft) 98,00 %
21.03.2017 12:56 11,6 C 18,3 C 12,8 C 69 % 0 lf 1008,4 hPa 0,0 l/m 2 min 0 min 575 W/m 23,0 km/h (4 Bft) 95,74 %
21.03.2017 12:58 11,7 C 17,8 C 12,2 C 69 % 0 lf 1008,5 hPa 0,0 l/m 2 min 0 min 538 W/m 31,4 km/h (5 Bft) 95,74 %
21.03.2017 13:00 11,7 C 16,1 C 12,2 C 67 % 0 lf 1008,5 hPa 0,0 l/m 0 min 0 min 284 W/m 18,8 km/h (3 Bft) 93,88 %
21.03.2017 13:02 11,7 C 15,0 C 11,7 C 67 % 0 lf 1008,5 hPa 0,0 l/m 0 min 0 min 206 W/m 23,0 km/h (4 Bft) 91,49 %
21.03.2017 13:04 11,7 C 14,4 C 11,7 C 67 % 0 lf 1008,5 hPa 0,0 l/m 0 min 0 min 208 W/m 18,8 km/h (3 Bft) 92,68 %
21.03.2017 13:06 11,7 C 13,3 C 11,7 C 64 % 0 lf 1008,6 hPa 0,0 l/m 0 min 0 min 182 W/m 33,5 km/h (5 Bft) 95,74 %
21.03.2017 13:08 11,7 C 13,3 C 11,1 C 64 % 0 lf 1008,5 hPa 0,0 l/m 0 min 0 min 170 W/m 23,0 km/h (4 Bft) 93,62 %
21.03.2017 13:10 11,6 C 13,3 C 11,1 C 64 % 0 lf 1008,5 hPa 0,0 l/m 0 min 0 min 221 W/m 27,2 km/h (4 Bft) 93,62 %
21.03.2017 13:12 11,6 C 12,8 C 11,1 C 63 % 0 lf 1008,5 hPa 0,0 l/m 0 min 0 min 228 W/m 37,7 km/h (5 Bft) 93,62 %
21.03.2017 13:14 11,5 C 12,8 C 11,1 C 64 % 0 lf 1008,5 hPa 0,0 l/m 0 min 0 min 210 W/m 27,2 km/h (4 Bft) 89,36 %
21.03.2017 13:16 11,4 C 12,8 C 11,1 C 64 % 0 lf 1008,6 hPa 0,0 l/m 0 min 0 min 185 W/m 27,2 km/h (4 Bft) 93,48 %
21.03.2017 13:18 11,3 C 12,2 C 10,6 C 63 % 0 lf 1008,6 hPa 0,0 l/m 0 min 0 min 165 W/m 33,5 km/h (5 Bft) 93,62 %
21.03.2017 13:20 11,2 C 12,2 C 10,6 C 62 % 0 lf 1008,6 hPa 0,0 l/m 0 min 0 min 183 W/m 31,4 km/h (5 Bft) 87,23 %
21.03.2017 13:22 11,2 C 13,3 C 11,1 C 63 % 0 lf 1008,6 hPa 0,0 l/m 0 min 0 min 223 W/m 23,0 km/h (4 Bft) 93,62 %
21.03.2017 13:24 11,2 C 13,3 C 11,1 C 64 % 0 lf 1008,6 hPa 0,0 l/m 0 min 0 min 256 W/m 25,1 km/h (4 Bft) 91,49 %
21.03.2017 13:26 11,2 C 12,8 C 11,1 C 64 % 0 lf 1008,6 hPa 0,0 l/m 0 min 0 min 247 W/m 29,3 km/h (5 Bft) 93,62 %
21.03.2017 13:28 11,2 C 13,9 C 11,7 C 65 % 0 lf 1008,7 hPa 0,0 l/m 0 min 0 min 289 W/m 27,2 km/h (4 Bft) 91,30 %
21.03.2017 13:30 11,2 C 13,9 C 11,7 C 66 % 0 lf 1008,7 hPa 0,0 l/m 2 min 0 min 333 W/m 35,6 km/h (5 Bft) 95,74 %
21.03.2017 13:32 11,2 C 13,9 C 11,1 C 66 % 0 lf 1008,8 hPa 0,0 l/m 0 min 0 min 273 W/m 37,7 km/h (5 Bft) 82,98 %
21.03.2017 13:34 11,1 C 13,9 C 11,1 C 66 % 0 lf 1008,8 hPa 0,0 l/m 0 min 0 min 280 W/m 29,3 km/h (5 Bft) 91,49 %
21.03.2017 13:36 11,1 C 13,9 C 11,7 C 67 % 0 lf 1008,9 hPa 0,0 l/m 2 min 0 min 342 W/m 25,1 km/h (4 Bft) 95,74 %
21.03.2017 13:38 11,1 C 14,4 C 11,7 C 66 % 0 lf 1008,8 hPa 0,0 l/m 2 min 0 min 397 W/m 35,6 km/h (5 Bft) 95,74 %
21.03.2017 13:40 11,1 C 15,0 C 11,7 C 66 % 0 lf 1008,8 hPa 0,0 l/m 2 min 0 min 408 W/m 29,3 km/h (5 Bft) 93,48 %
21.03.2017 13:42 11,1 C 15,0 C 12,2 C 65 % 0 lf 1008,8 hPa 0,0 l/m 2 min 0 min 375 W/m 27,2 km/h (4 Bft) 91,49 %
21.03.2017 13:44 11,2 C 15,0 C 12,2 C 64 % 0 lf 1008,8 hPa 0,0 l/m 2 min 0 min 385 W/m 27,2 km/h (4 Bft) 91,49 %
21.03.2017 13:46 11,2 C 15,0 C 12,2 C 64 % 0 lf 1008,8 hPa 0,0 l/m 2 min 0 min 400 W/m 29,3 km/h (5 Bft) 95,74 %
21.03.2017 13:48 11,2 C 15,0 C 12,2 C 64 % 0 lf 1008,8 hPa 0,0 l/m 2 min 0 min 407 W/m 31,4 km/h (5 Bft) 91,49 %
21.03.2017 13:50 11,3 C 15,6 C 12,8 C 64 % 0 lf 1008,8 hPa 0,0 l/m 2 min 0 min 449 W/m 35,6 km/h (5 Bft) 95,65 %
21.03.2017 13:52 11,3 C 15,0 C 12,2 C 62 % 0 lf 1008,8 hPa 0,0 l/m 2 min 0 min 431 W/m 46,0 km/h (6 Bft) 95,74 %
21.03.2017 13:54 11,3 C 15,6 C 12,8 C 63 % 0 lf 1008,8 hPa 0,0 l/m 2 min 0 min 401 W/m 27,2 km/h (4 Bft) 97,87 %
21.03.2017 13:56 11,4 C 15,6 C 12,2 C 62 % 0 lf 1008,8 hPa 0,0 l/m 2 min 0 min 397 W/m 27,2 km/h (4 Bft) 95,74 %
21.03.2017 13:58 11,4 C 15,0 C 12,2 C 64 % 0 lf 1008,8 hPa 0,0 l/m 2 min 0 min 367 W/m 31,4 km/h (5 Bft) 95,74 %
21.03.2017 14:00 11,4 C 15,0 C 12,2 C 64 % 0 lf 1008,9 hPa 0,0 l/m 2 min 0 min 369 W/m 25,1 km/h (4 Bft) 96,00 %
21.03.2017 14:02 11,4 C 15,0 C 12,2 C 65 % 0 lf 1008,9 hPa 0,0 l/m 2 min 0 min 323 W/m 20,9 km/h (4 Bft) 95,65 %
21.03.2017 14:04 11,4 C 14,4 C 12,2 C 65 % 0 lf 1008,8 hPa 0,0 l/m 0 min 0 min 258 W/m 27,2 km/h (4 Bft) 91,49 %
21.03.2017 14:06 11,4 C 13,9 C 11,7 C 64 % 0 lf 1008,9 hPa 0,0 l/m 0 min 0 min 216 W/m 27,2 km/h (4 Bft) 93,62 %
21.03.2017 14:08 11,4 C 12,8 C 11,1 C 65 % 0 lf 1009,0 hPa 0,0 l/m 0 min 0 min 191 W/m 25,1 km/h (4 Bft) 97,87 %
21.03.2017 14:10 11,3 C 12,8 C 11,1 C 64 % 0 lf 1009,1 hPa 0,0 l/m 0 min 0 min 193 W/m 31,4 km/h (5 Bft) 97,87 %
21.03.2017 14:12 11,2 C 12,2 C 11,1 C 63 % 0 lf 1009,0 hPa 0,0 l/m 0 min 0 min 217 W/m 37,7 km/h (5 Bft) 95,74 %
21.03.2017 14:14 11,2 C 12,8 C 11,1 C 64 % 0 lf 1009,0 hPa 0,0 l/m 0 min 0 min 237 W/m 20,9 km/h (4 Bft) 95,65 %
21.03.2017 14:16 11,1 C 12,8 C 11,7 C 64 % 0 lf 1009,0 hPa 0,0 l/m 0 min 0 min 257 W/m 20,9 km/h (4 Bft) 97,87 %
21.03.2017 14:18 11,1 C 13,9 C 11,7 C 64 % 0 lf 1009,1 hPa 0,0 l/m 2 min 0 min 317 W/m 27,2 km/h (4 Bft) 95,74 %
21.03.2017 14:20 11,1 C 13,9 C 12,2 C 64 % 0 lf 1009,0 hPa 0,0 l/m 2 min 0 min 345 W/m 20,9 km/h (4 Bft) 97,87 %
21.03.2017 14:22 11,1 C 13,9 C 12,2 C 64 % 0 lf 1009,1 hPa 0,0 l/m 2 min 0 min 292 W/m 29,3 km/h (5 Bft) 97,87 %
21.03.2017 14:24 11,1 C 13,3 C 12,2 C 64 % 0 lf 1009,1 hPa 0,0 l/m 0 min 0 min 272 W/m 23,0 km/h (4 Bft) 91,49 %
21.03.2017 14:26 11,1 C 12,8 C 11,7 C 64 % 0 lf 1009,1 hPa 0,0 l/m 0 min 0 min 262 W/m 29,3 km/h (5 Bft) 95,65 %
21.03.2017 14:28 11,1 C 13,3 C 11,7 C 63 % 0 lf 1009,2 hPa 0,0 l/m 2 min 0 min 340 W/m 33,5 km/h (5 Bft) 97,87 %
21.03.2017 14:30 11,1 C 13,9 C 12,2 C 63 % 0 lf 1009,2 hPa 0,0 l/m 2 min 0 min 369 W/m 25,1 km/h (4 Bft) 97,87 %
21.03.2017 14:32 11,1 C 14,4 C 12,2 C 63 % 0 lf 1009,2 hPa 0,0 l/m 2 min 0 min 370 W/m 18,8 km/h (3 Bft) 95,74 %
21.03.2017 14:34 11,1 C 14,4 C 12,2 C 63 % 0 lf 1009,3 hPa 0,0 l/m 2 min 0 min 373 W/m 35,6 km/h (5 Bft) 95,74 %
21.03.2017 14:36 11,2 C 15,0 C 12,2 C 63 % 0 lf 1009,3 hPa 0,0 l/m 2 min 0 min 373 W/m 25,1 km/h (4 Bft) 95,65 %
21.03.2017 14:38 11,2 C 15,0 C 12,2 C 63 % 0 lf 1009,2 hPa 0,0 l/m 2 min 0 min 355 W/m 23,0 km/h (4 Bft) 97,87 %
21.03.2017 14:40 11,2 C 14,4 C 12,2 C 62 % 0 lf 1009,2 hPa 0,0 l/m 2 min 0 min 340 W/m 31,4 km/h (5 Bft) 100,00 %
21.03.2017 14:42 11,2 C 14,4 C 11,7 C 62 % 0 lf 1009,3 hPa 0,0 l/m 2 min 0 min 331 W/m 25,1 km/h (4 Bft) 97,87 %
21.03.2017 14:44 11,2 C 14,4 C 11,7 C 61 % 0 lf 1009,2 hPa 0,0 l/m 2 min 0 min 336 W/m 31,4 km/h (5 Bft) 100,00 %
21.03.2017 14:46 11,2 C 14,4 C 11,7 C 60 % 0 lf 1009,3 hPa 0,0 l/m 2 min 0 min 372 W/m 23,0 km/h (4 Bft) 100,00 %
21.03.2017 14:48 11,2 C 15,6 C 12,2 C 61 % 0 lf 1009,4 hPa 0,0 l/m 2 min 0 min 416 W/m 25,1 km/h (4 Bft) 100,00 %
21.03.2017 14:50 11,2 C 16,1 C 12,2 C 59 % 0 lf 1009,4 hPa 0,0 l/m 2 min 0 min 476 W/m 33,5 km/h (5 Bft) 100,00 %
21.03.2017 14:52 11,3 C 16,1 C 12,2 C 58 % 0 lf 1009,4 hPa 0,0 l/m 2 min 0 min 452 W/m 33,5 km/h (5 Bft) 97,87 %
21.03.2017 14:54 11,3 C 16,1 C 12,2 C 57 % 0 lf 1009,4 hPa 0,0 l/m 2 min 0 min 480 W/m 33,5 km/h (5 Bft) 97,87 %
21.03.2017 14:56 11,3 C 16,1 C 12,2 C 57 % 0 lf 1009,4 hPa 0,0 l/m 2 min 0 min 391 W/m 27,2 km/h (4 Bft) 97,87 %
21.03.2017 14:58 11,4 C 15,6 C 11,7 C 57 % 0 lf 1009,4 hPa 0,0 l/m 2 min 0 min 384 W/m 31,4 km/h (5 Bft) 97,87 %
21.03.2017 15:00 11,4 C 16,1 C 11,7 C 56 % 0 lf 1009,3 hPa 0,0 l/m 2 min 0 min 403 W/m 25,1 km/h (4 Bft) 100,00 %
21.03.2017 15:02 11,4 C 15,6 C 11,7 C 56 % 0 lf 1009,4 hPa 0,0 l/m 2 min 0 min 370 W/m 39,7 km/h (6 Bft) 95,65 %
21.03.2017 15:04 11,4 C 14,4 C 11,7 C 56 % 0 lf 1009,4 hPa 0,0 l/m 2 min 0 min 289 W/m 39,7 km/h (6 Bft) 100,00 %
21.03.2017 15:06 11,4 C 14,4 C 11,7 C 56 % 0 lf 1009,4 hPa 0,0 l/m 2 min 0 min 328 W/m 29,3 km/h (5 Bft) 97,87 %
21.03.2017 15:08 11,3 C 13,9 C 11,7 C 57 % 0 lf 1009,4 hPa 0,0 l/m 2 min 0 min 302 W/m 33,5 km/h (5 Bft) 97,87 %
21.03.2017 15:10 11,3 C 13,9 C 11,1 C 56 % 0 lf 1009,5 hPa 0,0 l/m 2 min 0 min 297 W/m 37,7 km/h (5 Bft) 100,00 %
21.03.2017 15:12 11,3 C 13,9 C 11,1 C 57 % 0 lf 1009,5 hPa 0,0 l/m 2 min 0 min 277 W/m 18,8 km/h (3 Bft) 100,00 %
21.03.2017 15:14 11,2 C 13,9 C 11,7 C 57 % 0 lf 1009,5 hPa 0,0 l/m 2 min 0 min 278 W/m 16,7 km/h (3 Bft) 97,87 %
21.03.2017 15:16 11,2 C 13,9 C 11,1 C 56 % 0 lf 1009,7 hPa 0,0 l/m 2 min 0 min 301 W/m 33,5 km/h (5 Bft) 100,00 %
21.03.2017 15:18 11,2 C 13,9 C 11,7 C 56 % 0 lf 1009,6 hPa 0,0 l/m 2 min 0 min 309 W/m 29,3 km/h (5 Bft) 100,00 %
21.03.2017 15:20 11,2 C 13,9 C 11,7 C 55 % 0 lf 1009,7 hPa 0,0 l/m 2 min 0 min 324 W/m 31,4 km/h (5 Bft) 97,87 %
21.03.2017 15:22 11,2 C 14,4 C 11,7 C 55 % 0 lf 1009,7 hPa 0,0 l/m 2 min 0 min 330 W/m 18,8 km/h (3 Bft) 97,87 %
21.03.2017 15:24 11,2 C 14,4 C 11,7 C 55 % 0 lf 1009,7 hPa 0,0 l/m 2 min 0 min 308 W/m 23,0 km/h (4 Bft) 100,00 %
21.03.2017 15:26 11,2 C 13,9 C 11,1 C 55 % 0 lf 1009,7 hPa 0,0 l/m 2 min 0 min 277 W/m 27,2 km/h (4 Bft) 100,00 %
21.03.2017 15:28 11,1 C 13,9 C 11,1 C 54 % 0 lf 1009,8 hPa 0,0 l/m 2 min 0 min 290 W/m 23,0 km/h (4 Bft) 95,74 %
21.03.2017 15:30 11,1 C 13,9 C 11,1 C 55 % 0 lf 1009,7 hPa 0,0 l/m 2 min 0 min 298 W/m 14,6 km/h (3 Bft) 100,00 %
21.03.2017 15:32 11,1 C 13,9 C 11,7 C 55 % 0 lf 1009,7 hPa 0,0 l/m 2 min 0 min 265 W/m 23,0 km/h (4 Bft) 97,87 %
21.03.2017 15:34 11,1 C 13,3 C 11,1 C 55 % 0 lf 1009,9 hPa 0,0 l/m 2 min 0 min 239 W/m 29,3 km/h (5 Bft) 97,87 %
21.03.2017 15:36 11,0 C 13,3 C 10,6 C 54 % 0 lf 1010,0 hPa 0,0 l/m 2 min 0 min 242 W/m 25,1 km/h (4 Bft) 95,65 %
21.03.2017 15:38 11,0 C 13,3 C 11,1 C 54 % 0 lf 1010,0 hPa 0,0 l/m 2 min 0 min 289 W/m 29,3 km/h (5 Bft) 100,00 %
21.03.2017 15:40 10,9 C 13,9 C 11,1 C 54 % 0 lf 1010,0 hPa 0,0 l/m 2 min 0 min 323 W/m 29,3 km/h (5 Bft) 97,87 %
21.03.2017 15:42 10,9 C 13,9 C 11,1 C 54 % 0 lf 1010,0 hPa 0,0 l/m 2 min 0 min 300 W/m 27,2 km/h (4 Bft) 93,62 %
21.03.2017 15:44 10,9 C 13,3 C 10,6 C 54 % 0 lf 1010,1 hPa 0,0 l/m 2 min 0 min 273 W/m 31,4 km/h (5 Bft) 93,62 %
21.03.2017 15:46 10,8 C 13,3 C 10,6 C 55 % 0 lf 1010,1 hPa 0,0 l/m 2 min 0 min 262 W/m 27,2 km/h (4 Bft) 93,48 %
21.03.2017 15:48 10,8 C 12,8 C 10,6 C 55 % 0 lf 1010,0 hPa 0,0 l/m 2 min 0 min 256 W/m 35,6 km/h (5 Bft) 95,74 %
21.03.2017 15:50 10,8 C 13,3 C 10,6 C 55 % 0 lf 1010,0 hPa 0,0 l/m 2 min 0 min 267 W/m 25,1 km/h (4 Bft) 93,62 %
21.03.2017 15:52 10,8 C 13,3 C 10,6 C 54 % 0 lf 1010,1 hPa 0,0 l/m 2 min 0 min 266 W/m 25,1 km/h (4 Bft) 93,62 %
21.03.2017 15:54 10,7 C 12,8 C 10,6 C 54 % 0 lf 1010,1 hPa 0,0 l/m 2 min 0 min 261 W/m 31,4 km/h (5 Bft) 95,74 %
21.03.2017 15:56 10,7 C 12,8 C 10,6 C 54 % 0 lf 1010,2 hPa 0,0 l/m 2 min 0 min 253 W/m 35,6 km/h (5 Bft) 93,62 %
21.03.2017 15:58 10,7 C 12,8 C 10,6 C 54 % 0 lf 1010,2 hPa 0,0 l/m 2 min 0 min 234 W/m 20,9 km/h (4 Bft) 93,48 %
21.03.2017 16:00 10,7 C 12,8 C 10,6 C 54 % 0 lf 1010,2 hPa 0,0 l/m 2 min 0 min 252 W/m 27,2 km/h (4 Bft) 94,00 %
21.03.2017 16:02 10,6 C 13,3 C 10,6 C 53 % 0 lf 1010,2 hPa 0,0 l/m 2 min 0 min 298 W/m 33,5 km/h (5 Bft) 95,65 %
21.03.2017 16:04 10,6 C 13,9 C 10,6 C 53 % 0 lf 1010,3 hPa 0,0 l/m 2 min 0 min 343 W/m 27,2 km/h (4 Bft) 91,49 %
21.03.2017 16:06 10,6 C 14,4 C 10,6 C 54 % 0 lf 1010,2 hPa 0,0 l/m 2 min 0 min 373 W/m 20,9 km/h (4 Bft) 89,36 %
21.03.2017 16:08 10,6 C 13,9 C 10,6 C 53 % 0 lf 1010,2 hPa 0,0 l/m 2 min 0 min 317 W/m 20,9 km/h (4 Bft) 95,74 %
21.03.2017 16:10 10,7 C 13,9 C 10,6 C 54 % 0 lf 1010,2 hPa 0,0 l/m 2 min 0 min 250 W/m 25,1 km/h (4 Bft) 95,74 %
21.03.2017 16:12 10,6 C 13,3 C 10,6 C 53 % 0 lf 1010,2 hPa 0,0 l/m 2 min 0 min 215 W/m 18,8 km/h (3 Bft) 93,48 %
21.03.2017 16:14 10,6 C 13,3 C 10,0 C 55 % 0 lf 1010,2 hPa 0,0 l/m 2 min 0 min 198 W/m 20,9 km/h (4 Bft) 91,49 %
21.03.2017 16:16 10,6 C 12,8 C 10,0 C 55 % 0 lf 1010,2 hPa 0,0 l/m 0 min 0 min 183 W/m 20,9 km/h (4 Bft) 91,49 %
21.03.2017 16:18 10,6 C 12,2 C 10,0 C 55 % 0 lf 1010,2 hPa 0,0 l/m 0 min 0 min 175 W/m 23,0 km/h (4 Bft) 89,36 %
21.03.2017 16:20 10,6 C 11,7 C 10,0 C 55 % 0 lf 1010,2 hPa 0,0 l/m 0 min 0 min 172 W/m 25,1 km/h (4 Bft) 91,49 %
21.03.2017 16:22 10,5 C 11,7 C 10,0 C 54 % 0 lf 1010,2 hPa 0,0 l/m 0 min 0 min 170 W/m 33,5 km/h (5 Bft) 93,62 %
21.03.2017 16:24 10,4 C 11,7 C 9,4 C 53 % 0 lf 1010,3 hPa 0,0 l/m 0 min 0 min 166 W/m 27,2 km/h (4 Bft) 86,96 %
21.03.2017 16:26 10,4 C 11,7 C 10,0 C 53 % 0 lf 1010,3 hPa 0,0 l/m 0 min 0 min 168 W/m 23,0 km/h (4 Bft) 87,23 %
21.03.2017 16:28 10,3 C 11,7 C 10,0 C 53 % 0 lf 1010,3 hPa 0,0 l/m 0 min 0 min 172 W/m 31,4 km/h (5 Bft) 91,49 %
21.03.2017 16:30 10,3 C 11,7 C 10,0 C 54 % 0 lf 1010,4 hPa 0,0 l/m 2 min 0 min 175 W/m 29,3 km/h (5 Bft) 93,62 %
21.03.2017 16:32 10,2 C 11,7 C 9,4 C 54 % 0 lf 1010,4 hPa 0,0 l/m 2 min 0 min 186 W/m 27,2 km/h (4 Bft) 87,23 %
21.03.2017 16:34 10,2 C 12,2 C 10,0 C 54 % 0 lf 1010,5 hPa 0,0 l/m 2 min 0 min 221 W/m 23,0 km/h (4 Bft) 95,74 %
21.03.2017 16:36 10,2 C 12,2 C 10,0 C 54 % 0 lf 1010,4 hPa 0,0 l/m 2 min 0 min 236 W/m 23,0 km/h (4 Bft) 95,65 %
21.03.2017 16:38 10,2 C 12,8 C 10,0 C 55 % 0 lf 1010,5 hPa 0,0 l/m 2 min 0 min 236 W/m 16,7 km/h (3 Bft) 91,49 %
21.03.2017 16:40 10,2 C 12,8 C 10,0 C 56 % 0 lf 1010,5 hPa 0,0 l/m 2 min 0 min 215 W/m 18,8 km/h (3 Bft) 95,74 %
21.03.2017 16:42 10,2 C 12,8 C 10,0 C 56 % 0 lf 1010,5 hPa 0,0 l/m 2 min 0 min 194 W/m 20,9 km/h (4 Bft) 95,74 %
21.03.2017 16:44 10,2 C 12,8 C 10,0 C 57 % 0 lf 1010,5 hPa 0,0 l/m 2 min 0 min 182 W/m 27,2 km/h (4 Bft) 93,62 %
21.03.2017 16:46 10,2 C 12,2 C 10,0 C 57 % 0 lf 1010,5 hPa 0,0 l/m 2 min 0 min 168 W/m 18,8 km/h (3 Bft) 93,62 %
21.03.2017 16:48 10,2 C 11,7 C 9,4 C 57 % 0 lf 1010,6 hPa 0,0 l/m 2 min 0 min 166 W/m 29,3 km/h (5 Bft) 95,65 %
21.03.2017 16:50 10,2 C 11,7 C 9,4 C 57 % 0 lf 1010,6 hPa 0,0 l/m 2 min 0 min 165 W/m 27,2 km/h (4 Bft) 97,87 %
21.03.2017 16:52 10,1 C 11,7 C 9,4 C 57 % 0 lf 1010,6 hPa 0,0 l/m 2 min 0 min 161 W/m 27,2 km/h (4 Bft) 95,74 %
21.03.2017 16:54 10,1 C 11,1 C 9,4 C 57 % 0 lf 1010,7 hPa 0,0 l/m 2 min 0 min 154 W/m 25,1 km/h (4 Bft) 97,87 %
21.03.2017 16:56 10,1 C 11,1 C 9,4 C 57 % 0 lf 1010,6 hPa 0,0 l/m 2 min 0 min 147 W/m 23,0 km/h (4 Bft) 93,62 %
21.03.2017 16:58 10,0 C 11,1 C 8,9 C 58 % 0 lf 1010,7 hPa 0,0 l/m 2 min 0 min 138 W/m 18,8 km/h (3 Bft) 95,74 %
21.03.2017 17:00 10,0 C 11,1 C 8,9 C 58 % 0 lf 1010,7 hPa 0,0 l/m 0 min 0 min 135 W/m 16,7 km/h (3 Bft) 97,83 %
21.03.2017 17:02 9,9 C 11,1 C 8,9 C 58 % 0 lf 1010,7 hPa 0,0 l/m 0 min 0 min 132 W/m 16,7 km/h (3 Bft) 95,74 %
21.03.2017 17:04 9,9 C 11,1 C 8,9 C 58 % 0 lf 1010,7 hPa 0,0 l/m 0 min 0 min 128 W/m 23,0 km/h (4 Bft) 97,87 %
21.03.2017 17:06 9,9 C 10,6 C 8,9 C 58 % 0 lf 1010,7 hPa 0,0 l/m 0 min 0 min 122 W/m 20,9 km/h (4 Bft) 95,74 %
21.03.2017 17:08 9,8 C 10,6 C 8,9 C 58 % 0 lf 1010,8 hPa 0,0 l/m 0 min 0 min 117 W/m 23,0 km/h (4 Bft) 97,87 %
21.03.2017 17:10 9,8 C 10,6 C 8,9 C 58 % 0 lf 1010,7 hPa 0,0 l/m 0 min 0 min 115 W/m 23,0 km/h (4 Bft) 97,87 %
21.03.2017 17:12 9,8 C 10,6 C 8,9 C 58 % 0 lf 1010,7 hPa 0,0 l/m 0 min 0 min 111 W/m 20,9 km/h (4 Bft) 93,48 %
21.03.2017 17:14 9,7 C 10,6 C 8,9 C 59 % 0 lf 1010,8 hPa 0,0 l/m 0 min 0 min 105 W/m 14,6 km/h (3 Bft) 95,74 %
21.03.2017 17:16 9,7 C 10,6 C 8,9 C 59 % 0 lf 1010,8 hPa 0,0 l/m 0 min 0 min 100 W/m 16,7 km/h (3 Bft) 97,87 %
21.03.2017 17:18 9,7 C 10,0 C 8,9 C 59 % 0 lf 1010,8 hPa 0,0 l/m 0 min 0 min 98 W/m 20,9 km/h (4 Bft) 95,74 %
21.03.2017 17:20 9,6 C 10,0 C 8,3 C 59 % 0 lf 1010,8 hPa 0,0 l/m 0 min 0 min 100 W/m 16,7 km/h (3 Bft) 97,87 %
21.03.2017 17:22 9,6 C 10,0 C 8,9 C 59 % 0 lf 1010,7 hPa 0,0 l/m 0 min 0 min 105 W/m 14,6 km/h (3 Bft) 97,83 %
21.03.2017 17:24 9,6 C 10,0 C 8,9 C 60 % 0 lf 1010,7 hPa 0,0 l/m 2 min 0 min 107 W/m 16,7 km/h (3 Bft) 97,87 %
21.03.2017 17:26 9,6 C 10,0 C 8,9 C 59 % 0 lf 1010,7 hPa 0,0 l/m 2 min 0 min 107 W/m 18,8 km/h (3 Bft) 100,00 %
21.03.2017 17:28 9,6 C 10,0 C 8,9 C 59 % 0 lf 1010,7 hPa 0,0 l/m 2 min 0 min 103 W/m 16,7 km/h (3 Bft) 91,49 %
21.03.2017 17:30 9,5 C 10,0 C 8,9 C 59 % 0 lf 1010,8 hPa 0,0 l/m 2 min 0 min 98 W/m 12,6 km/h (3 Bft) 100,00 %
21.03.2017 17:32 9,5 C 10,0 C 8,3 C 60 % 0 lf 1010,8 hPa 0,0 l/m 2 min 0 min 100 W/m 16,7 km/h (3 Bft) 97,87 %
21.03.2017 17:34 9,4 C 10,0 C 8,3 C 60 % 0 lf 1010,7 hPa 0,0 l/m 2 min 0 min 98 W/m 16,7 km/h (3 Bft) 95,65 %
21.03.2017 17:36 9,4 C 10,0 C 8,3 C 60 % 0 lf 1010,7 hPa 0,0 l/m 2 min 0 min 93 W/m 12,6 km/h (3 Bft) 97,87 %
21.03.2017 17:38 9,4 C 10,0 C 8,3 C 60 % 0 lf 1010,7 hPa 0,0 l/m 2 min 0 min 91 W/m 14,6 km/h (3 Bft) 97,87 %
21.03.2017 17:40 9,4 C 10,0 C 8,3 C 60 % 0 lf 1010,8 hPa 0,0 l/m 2 min 0 min 91 W/m 12,6 km/h (3 Bft) 100,00 %
21.03.2017 17:42 9,4 C 10,0 C 8,3 C 60 % 0 lf 1010,8 hPa 0,0 l/m 2 min 0 min 88 W/m 10,5 km/h (2 Bft) 97,87 %
21.03.2017 17:44 9,3 C 10,0 C 8,3 C 61 % 0 lf 1010,9 hPa 0,0 l/m 0 min 0 min 78 W/m 16,7 km/h (3 Bft) 100,00 %
21.03.2017 17:46 9,3 C 10,0 C 8,3 C 60 % 0 lf 1010,9 hPa 0,0 l/m 2 min 0 min 78 W/m 16,7 km/h (3 Bft) 97,83 %
21.03.2017 17:48 9,3 C 9,4 C 7,8 C 60 % 0 lf 1010,9 hPa 0,0 l/m 2 min 0 min 77 W/m 18,8 km/h (3 Bft) 97,87 %
21.03.2017 17:50 9,3 C 9,4 C 7,8 C 60 % 0 lf 1011,0 hPa 0,0 l/m 2 min 0 min 74 W/m 12,6 km/h (3 Bft) 100,00 %
21.03.2017 17:52 9,3 C 9,4 C 7,8 C 60 % 0 lf 1010,9 hPa 0,0 l/m 2 min 0 min 73 W/m 12,6 km/h (3 Bft) 97,87 %
21.03.2017 17:54 9,3 C 9,4 C 7,8 C 61 % 0 lf 1011,0 hPa 0,0 l/m 2 min 0 min 81 W/m 14,6 km/h (3 Bft) 97,87 %
21.03.2017 17:56 9,2 C 9,4 C 7,8 C 61 % 0 lf 1011,0 hPa 0,0 l/m 2 min 0 min 80 W/m 12,6 km/h (3 Bft) 100,00 %
21.03.2017 17:58 9,2 C 9,4 C 7,8 C 61 % 0 lf 1010,9 hPa 0,0 l/m 2 min 0 min 73 W/m 14,6 km/h (3 Bft) 97,83 %
21.03.2017 18:00 9,2 C 9,4 C 7,8 C 61 % 0 lf 1010,9 hPa 0,0 l/m 2 min 0 min 69 W/m 18,8 km/h (3 Bft) 100,00 %
21.03.2017 18:02 9,2 C 9,4 C 7,8 C 61 % 0 lf 1011,0 hPa 0,0 l/m 2 min 0 min 68 W/m 14,6 km/h (3 Bft) 97,87 %
21.03.2017 18:04 9,2 C 9,4 C 7,8 C 61 % 0 lf 1011,1 hPa 0,0 l/m 2 min 0 min 68 W/m 8,4 km/h (2 Bft) 100,00 %
21.03.2017 18:06 9,1 C 9,4 C 7,8 C 61 % 0 lf 1011,0 hPa 0,0 l/m 2 min 0 min 66 W/m 14,6 km/h (3 Bft) 100,00 %
21.03.2017 18:08 9,1 C 9,4 C 7,8 C 61 % 0 lf 1011,0 hPa 0,0 l/m 2 min 0 min 57 W/m 10,5 km/h (2 Bft) 97,87 %
21.03.2017 18:10 9,1 C 9,4 C 7,2 C 62 % 0 lf 1011,1 hPa 0,0 l/m 2 min 0 min 54 W/m 8,4 km/h (2 Bft) 97,87 %
21.03.2017 18:12 9,1 C 9,4 C 7,2 C 62 % 0 lf 1011,1 hPa 0,0 l/m 2 min 0 min 52 W/m 12,6 km/h (3 Bft) 97,87 %
21.03.2017 18:14 9,1 C 8,9 C 7,2 C 62 % 0 lf 1011,1 hPa 0,0 l/m 2 min 0 min 48 W/m 10,5 km/h (2 Bft) 97,87 %
21.03.2017 18:16 9,0 C 8,9 C 7,2 C 62 % 0 lf 1011,0 hPa 0,0 l/m 2 min 0 min 45 W/m 8,4 km/h (2 Bft) 97,87 %
21.03.2017 18:18 9,0 C 8,9 C 7,2 C 62 % 0 lf 1011,1 hPa 0,0 l/m 2 min 0 min 43 W/m 12,6 km/h (3 Bft) 100,00 %
21.03.2017 18:20 8,9 C 8,9 C 6,7 C 62 % 0 lf 1011,1 hPa 0,0 l/m 2 min 0 min 42 W/m 8,4 km/h (2 Bft) 95,74 %
21.03.2017 18:22 8,9 C 8,9 C 6,7 C 62 % 0 lf 1011,1 hPa 0,0 l/m 2 min 0 min 41 W/m 12,6 km/h (3 Bft) 91,49 %
21.03.2017 18:24 8,9 C 8,3 C 6,7 C 62 % 0 lf 1011,1 hPa 0,0 l/m 2 min 0 min 41 W/m 10,5 km/h (2 Bft) 97,87 %
21.03.2017 18:26 8,9 C 8,3 C 6,7 C 62 % 0 lf 1011,1 hPa 0,0 l/m 2 min 0 min 37 W/m 10,5 km/h (2 Bft) 97,87 %
21.03.2017 18:28 8,8 C 8,3 C 6,7 C 63 % 0 lf 1011,1 hPa 0,0 l/m 2 min 0 min 32 W/m 12,6 km/h (3 Bft) 95,74 %
21.03.2017 18:30 8,8 C 8,3 C 6,1 C 63 % 0 lf 1011,2 hPa 0,0 l/m 2 min 0 min 30 W/m 8,4 km/h (2 Bft) 97,83 %
21.03.2017 18:32 8,8 C 7,8 C 6,1 C 63 % 0 lf 1011,2 hPa 0,0 l/m 2 min 0 min 27 W/m 8,4 km/h (2 Bft) 91,49 %
21.03.2017 18:34 8,8 C 7,8 C 5,6 C 63 % 0 lf 1011,2 hPa 0,0 l/m 2 min 0 min 23 W/m 6,3 km/h (2 Bft) 93,62 %
21.03.2017 18:36 8,7 C 7,8 C 5,6 C 63 % 0 lf 1011,3 hPa 0,0 l/m 0 min 0 min 19 W/m 6,3 km/h (2 Bft) 82,98 %
21.03.2017 18:38 8,7 C 7,8 C 5,6 C 63 % 0 lf 1011,3 hPa 0,0 l/m 0 min 0 min 17 W/m 10,5 km/h (2 Bft) 95,74 %
21.03.2017 18:40 8,7 C 7,2 C 5,6 C 63 % 0 lf 1011,3 hPa 0,0 l/m 0 min 0 min 14 W/m 8,4 km/h (2 Bft) 95,74 %
21.03.2017 18:42 8,6 C 7,2 C 5,0 C 63 % 0 lf 1011,4 hPa 0,0 l/m 0 min 0 min 13 W/m 8,4 km/h (2 Bft) 86,96 %
21.03.2017 18:44 8,6 C 7,2 C 5,0 C 63 % 0 lf 1011,5 hPa 0,0 l/m 0 min 0 min 12 W/m 8,4 km/h (2 Bft) 93,62 %
21.03.2017 18:46 8,5 C 7,2 C 5,0 C 64 % 0 lf 1011,5 hPa 0,0 l/m 0 min 0 min 12 W/m 6,3 km/h (2 Bft) 91,49 %
21.03.2017 18:48 8,5 C 6,7 C 4,4 C 64 % 0 lf 1011,6 hPa 0,0 l/m 0 min 0 min 10 W/m 6,3 km/h (2 Bft) 93,62 %
21.03.2017 18:50 8,4 C 6,7 C 4,4 C 64 % 0 lf 1011,6 hPa 0,0 l/m 0 min 0 min 8 W/m 6,3 km/h (2 Bft) 93,62 %
21.03.2017 18:52 8,4 C 6,7 C 4,4 C 64 % 0 lf 1011,6 hPa 0,0 l/m 0 min 0 min 7 W/m 8,4 km/h (2 Bft) 93,62 %
21.03.2017 18:54 8,3 C 6,7 C 4,4 C 64 % 0 lf 1011,6 hPa 0,0 l/m 0 min 0 min 7 W/m 6,3 km/h (2 Bft) 91,30 %
21.03.2017 18:56 8,3 C 6,7 C 4,4 C 64 % 0 lf 1011,6 hPa 0,0 l/m 0 min 0 min 8 W/m 8,4 km/h (2 Bft) 97,87 %
21.03.2017 18:59 8,2 C 6,7 C 4,4 C 65 % 0 lf 1011,7 hPa 0,0 l/m 0 min 0 min 11 W/m 10,5 km/h (2 Bft) 94,29 %
21.03.2017 19:00 8,2 C 6,7 C 4,4 C 65 % 0 lf 1011,7 hPa 0,0 l/m 0 min 0 min 11 W/m 4,2 km/h (1 Bft) 87,50 %
21.03.2017 19:01 8,2 C 6,7 C 4,4 C 65 % 0 lf 1011,6 hPa 0,0 l/m 0 min 0 min 9 W/m 4,2 km/h (1 Bft) 95,65 %
21.03.2017 19:02 8,1 C 6,7 C 4,4 C 65 % 0 lf 1011,6 hPa 0,0 l/m 0 min 0 min 7 W/m 6,3 km/h (2 Bft) 100,00 %
21.03.2017 19:04 8,1 C 6,7 C 4,4 C 65 % 0 lf 1011,7 hPa 0,0 l/m 0 min 0 min 5 W/m 4,2 km/h (1 Bft) 92,31 %
21.03.2017 19:06 8,1 C 6,1 C 3,9 C 65 % 0 lf 1011,7 hPa 0,0 l/m 0 min 0 min 4 W/m 4,2 km/h (1 Bft) 93,62 %
21.03.2017 19:08 8,0 C 6,1 C 3,9 C 65 % 0 lf 1011,8 hPa 0,0 l/m 0 min 0 min 0 W/m 4,2 km/h (1 Bft) 93,62 %
21.03.2017 19:10 7,9 C 6,1 C 3,9 C 65 % 0 lf 1011,7 hPa 0,0 l/m 0 min 0 min 0 W/m 4,2 km/h (1 Bft) 95,74 %
21.03.2017 19:12 7,9 C 6,1 C 3,9 C 65 % 0 lf 1011,8 hPa 0,0 l/m 0 min 0 min 0 W/m 4,2 km/h (1 Bft) 85,11 %
21.03.2017 19:14 7,8 C 5,6 C 3,3 C 66 % 0 lf 1011,8 hPa 0,0 l/m 0 min 0 min 0 W/m 4,2 km/h (1 Bft) 95,74 %
21.03.2017 19:16 7,8 C 5,6 C 3,3 C 66 % 0 lf 1011,8 hPa 0,0 l/m 0 min 0 min 0 W/m 4,2 km/h (1 Bft) 89,36 %
21.03.2017 19:18 7,7 C 6,1 C 3,3 C 66 % 0 lf 1011,9 hPa 0,0 l/m 0 min 0 min 0 W/m 4,2 km/h (1 Bft) 95,65 %
21.03.2017 19:20 7,7 C 6,1 C 3,3 C 66 % 0 lf 1012,0 hPa 0,0 l/m 0 min 0 min 0 W/m 4,2 km/h (1 Bft) 93,62 %
21.03.2017 19:22 7,7 C 5,6 C 3,3 C 66 % 0 lf 1012,0 hPa 0,0 l/m 0 min 0 min 0 W/m 6,3 km/h (2 Bft) 95,12 %
21.03.2017 19:24 7,6 C 5,6 C 3,3 C 66 % 0 lf 1012,0 hPa 0,0 l/m 0 min 0 min 0 W/m 4,2 km/h (1 Bft) 95,74 %
21.03.2017 19:26 7,5 C 5,6 C 3,3 C 67 % 0 lf 1012,0 hPa 0,0 l/m 0 min 0 min 0 W/m 2,1 km/h (1 Bft) 100,00 %
21.03.2017 19:28 7,4 C 5,6 C 3,3 C 67 % 0 lf 1012,1 hPa 0,0 l/m 0 min 0 min 0 W/m 4,2 km/h (1 Bft) 97,87 %
21.03.2017 19:30 7,4 C 5,6 C 3,3 C 67 % 0 lf 1012,1 hPa 0,0 l/m 0 min 0 min 0 W/m 4,2 km/h (1 Bft) 97,87 %
21.03.2017 19:32 7,3 C 5,6 C 2,8 C 67 % 0 lf 1012,2 hPa 0,0 l/m 0 min 0 min 0 W/m 4,2 km/h (1 Bft) 95,65 %
21.03.2017 19:34 7,3 C 5,6 C 2,8 C 68 % 0 lf 1012,2 hPa 0,0 l/m 0 min 0 min 0 W/m 2,1 km/h (1 Bft) 95,74 %
21.03.2017 19:36 7,2 C 5,6 C 2,8 C 68 % 0 lf 1012,2 hPa 0,0 l/m 0 min 0 min 0 W/m 4,2 km/h (1 Bft) 95,74 %
21.03.2017 19:38 7,2 C 5,6 C 2,8 C 68 % 0 lf 1012,2 hPa 0,0 l/m 0 min 0 min 0 W/m 2,1 km/h (1 Bft) 100,00 %
21.03.2017 19:40 7,1 C 5,6 C 2,8 C 69 % 0 lf 1012,3 hPa 0,0 l/m 0 min 0 min 0 W/m 2,1 km/h (1 Bft) 97,87 %
21.03.2017 19:42 7,1 C 5,0 C 2,8 C 69 % 0 lf 1012,3 hPa 0,0 l/m 0 min 0 min 1 W/m 2,1 km/h (1 Bft) 97,83 %
21.03.2017 19:44 7,0 C 5,0 C 2,8 C 69 % 0 lf 1012,4 hPa 0,0 l/m 0 min 0 min 3 W/m 2,1 km/h (1 Bft) 97,87 %
21.03.2017 19:46 6,9 C 5,0 C 2,8 C 69 % 0 lf 1012,4 hPa 0,0 l/m 0 min 0 min 0 W/m 4,2 km/h (1 Bft) 95,74 %
21.03.2017 19:48 6,9 C 5,0 C 2,8 C 69 % 0 lf 1012,4 hPa 0,0 l/m 0 min 0 min 0 W/m 2,1 km/h (1 Bft) 100,00 %
21.03.2017 19:50 6,8 C 4,4 C 2,8 C 69 % 0 lf 1012,5 hPa 0,0 l/m 0 min 0 min 0 W/m 2,1 km/h (1 Bft) 95,74 %
21.03.2017 19:52 6,8 C 4,4 C 2,8 C 70 % 0 lf 1012,4 hPa 0,0 l/m 0 min 0 min 0 W/m 2,1 km/h (1 Bft) 97,56 %
21.03.2017 19:54 6,7 C 4,4 C 2,2 C 70 % 0 lf 1012,5 hPa 0,0 l/m 0 min 0 min 0 W/m 2,1 km/h (1 Bft) 97,87 %
21.03.2017 19:56 6,7 C 4,4 C 2,2 C 70 % 0 lf 1012,5 hPa 0,0 l/m 0 min 0 min 0 W/m 4,2 km/h (1 Bft) 97,83 %
21.03.2017 19:58 6,6 C 4,4 C 2,2 C 70 % 0 lf 1012,6 hPa 0,0 l/m 0 min 0 min 0 W/m 2,1 km/h (1 Bft) 97,87 %
21.03.2017 20:00 6,6 C 5,0 C 2,2 C 70 % 0 lf 1012,5 hPa 0,0 l/m 0 min 0 min 0 W/m 2,1 km/h (1 Bft) 93,62 %
21.03.2017 20:02 6,5 C 5,0 C 2,2 C 71 % 0 lf 1012,6 hPa 0,0 l/m 0 min 0 min 0 W/m 2,1 km/h (1 Bft) 93,62 %
21.03.2017 20:04 6,4 C 5,0 C 2,2 C 71 % 0 lf 1012,6 hPa 0,0 l/m 0 min 0 min 0 W/m 2,1 km/h (1 Bft) 97,87 %
21.03.2017 20:06 6,4 C 5,0 C 2,2 C 72 % 0 lf 1012,6 hPa 0,0 l/m 0 min 0 min 0 W/m 2,1 km/h (1 Bft) 95,65 %
21.03.2017 20:08 6,4 C 4,4 C 2,2 C 72 % 0 lf 1012,7 hPa 0,0 l/m 0 min 0 min 0 W/m 2,1 km/h (1 Bft) 97,87 %
21.03.2017 20:10 6,3 C 4,4 C 2,2 C 72 % 0 lf 1012,7 hPa 0,0 l/m 0 min 0 min 0 W/m 0,0 km/h (0 Bft) 93,62 %
21.03.2017 20:12 6,2 C 3,9 C 2,2 C 72 % 0 lf 1012,7 hPa 0,0 l/m 0 min 0 min 0 W/m 0,0 km/h (0 Bft) 95,74 %
21.03.2017 20:14 6,2 C 3,9 C 2,2 C 72 % 0 lf 1012,7 hPa 0,0 l/m 0 min 0 min 0 W/m 0,0 km/h (0 Bft) 93,62 %
21.03.2017 20:16 6,1 C 3,9 C 1,7 C 72 % 0 lf 1012,7 hPa 0,0 l/m 0 min 0 min 0 W/m 0,0 km/h (0 Bft) 91,49 %
21.03.2017 20:18 6,1 C 3,9 C 1,7 C 72 % 0 lf 1012,7 hPa 0,0 l/m 0 min 0 min 1 W/m 2,1 km/h (1 Bft) 93,48 %
21.03.2017 20:20 6,0 C 3,3 C 1,7 C 73 % 0 lf 1012,7 hPa 0,0 l/m 0 min 0 min 0 W/m 2,1 km/h (1 Bft) 91,53 %
21.03.2017 20:22 5,9 C 3,3 C 1,7 C 73 % 0 lf 1012,7 hPa 0,0 l/m 0 min 0 min 5 W/m 0,0 km/h (0 Bft) 91,43 %
21.03.2017 20:24 5,9 C 3,3 C 1,7 C 73 % 0 lf 1012,7 hPa 0,0 l/m 0 min 0 min 0 W/m 0,0 km/h (0 Bft) 91,49 %
21.03.2017 20:26 5,8 C 3,3 C 1,7 C 73 % 0 lf 1012,7 hPa 0,0 l/m 0 min 0 min 0 W/m 2,1 km/h (1 Bft) 95,74 %
21.03.2017 20:28 5,8 C 3,9 C 1,7 C 73 % 0 lf 1012,7 hPa 0,0 l/m 0 min 0 min 0 W/m 2,1 km/h (1 Bft) 89,36 %
21.03.2017 20:30 5,7 C 3,9 C 1,7 C 73 % 0 lf 1012,7 hPa 0,0 l/m 0 min 0 min 0 W/m 2,1 km/h (1 Bft) 95,65 %
21.03.2017 20:32 5,7 C 3,9 C 1,7 C 74 % 0 lf 1012,7 hPa 0,0 l/m 0 min 0 min 0 W/m 2,1 km/h (1 Bft) 95,74 %
21.03.2017 20:34 5,6 C 3,9 C 1,7 C 74 % 0 lf 1012,7 hPa 0,0 l/m 0 min 0 min 0 W/m 0,0 km/h (0 Bft) 95,74 %
21.03.2017 20:36 5,6 C 4,4 C 1,7 C 75 % 0 lf 1012,7 hPa 0,0 l/m 0 min 0 min 0 W/m 0,0 km/h (0 Bft) 93,62 %
21.03.2017 20:38 5,5 C 4,4 C 1,7 C 75 % 0 lf 1012,8 hPa 0,0 l/m 0 min 0 min 1 W/m 0,0 km/h (0 Bft) 93,62 %
21.03.2017 20:40 5,4 C 4,4 C 1,7 C 75 % 0 lf 1012,8 hPa 0,0 l/m 0 min 0 min 0 W/m 0,0 km/h (0 Bft) 95,74 %
21.03.2017 20:42 5,4 C 3,9 C 1,1 C 76 % 0 lf 1012,8 hPa 0,0 l/m 0 min 0 min 0 W/m 0,0 km/h (0 Bft) 95,65 %
21.03.2017 20:44 5,3 C 3,9 C 1,1 C 76 % 0 lf 1012,8 hPa 0,0 l/m 0 min 0 min 0 W/m 0,0 km/h (0 Bft) 91,49 %
21.03.2017 20:46 5,3 C 3,9 C 1,1 C 76 % 0 lf 1012,8 hPa 0,0 l/m 0 min 0 min 0 W/m 0,0 km/h (0 Bft) 85,11 %
21.03.2017 20:48 5,2 C 3,3 C 1,1 C 76 % 0 lf 1012,8 hPa 0,0 l/m 0 min 0 min 0 W/m 0,0 km/h (0 Bft) 68,09 %
21.03.2017 20:50 5,2 C 3,3 C 1,1 C 76 % 0 lf 1012,8 hPa 0,0 l/m 0 min 0 min 0 W/m 0,0 km/h (0 Bft) 79,31 %
21.03.2017 20:52 5,1 C 2,8 C 1,1 C 76 % 0 lf 1012,9 hPa 0,0 l/m 0 min 0 min 2 W/m 0,0 km/h (0 Bft) 94,44 %
21.03.2017 20:54 5,1 C 2,8 C 1,1 C 76 % 0 lf 1012,9 hPa 0,0 l/m 0 min 0 min 0 W/m 0,0 km/h (0 Bft) 97,83 %
21.03.2017 20:56 5,0 C 2,8 C 1,1 C 76 % 0 lf 1013,0 hPa 0,0 l/m 0 min 0 min 4 W/m 0,0 km/h (0 Bft) 91,49 %
21.03.2017 20:58 4,9 C 2,8 C 1,1 C 76 % 0 lf 1013,0 hPa 0,0 l/m 0 min 0 min 3 W/m 0,0 km/h (0 Bft) 95,74 %
21.03.2017 21:00 4,9 C 2,8 C 1,1 C 76 % 0 lf 1012,9 hPa 0,0 l/m 0 min 0 min 3 W/m 0,0 km/h (0 Bft) 93,62 %
21.03.2017 21:02 4,8 C 2,8 C 1,1 C 76 % 0 lf 1012,9 hPa 0,0 l/m 0 min 0 min 1 W/m 0,0 km/h (0 Bft) 91,49 %
21.03.2017 21:04 4,8 C 2,8 C 1,1 C 76 % 0 lf 1012,9 hPa 0,0 l/m 0 min 0 min 0 W/m 0,0 km/h (0 Bft) 97,83 %
21.03.2017 21:06 4,7 C 3,3 C 1,1 C 76 % 0 lf 1013,0 hPa 0,0 l/m 0 min 0 min 0 W/m 0,0 km/h (0 Bft) 97,87 %
21.03.2017 21:08 4,7 C 3,3 C 1,1 C 77 % 0 lf 1012,9 hPa 0,0 l/m 0 min 0 min 0 W/m 0,0 km/h (0 Bft) 95,74 %
21.03.2017 21:10 4,6 C 3,9 C 1,1 C 77 % 0 lf 1013,0 hPa 0,0 l/m 0 min 0 min 0 W/m 2,1 km/h (1 Bft) 95,74 %
21.03.2017 21:12 4,6 C 3,9 C 1,1 C 78 % 0 lf 1013,0 hPa 0,0 l/m 0 min 0 min 0 W/m 0,0 km/h (0 Bft) 91,49 %
21.03.2017 21:14 4,6 C 3,9 C 1,1 C 79 % 0 lf 1012,9 hPa 0,0 l/m 0 min 0 min 0 W/m 2,1 km/h (1 Bft) 93,62 %
21.03.2017 21:16 4,5 C 3,3 C 0,6 C 79 % 0 lf 1013,0 hPa 0,0 l/m 0 min 0 min 0 W/m 0,0 km/h (0 Bft) 95,65 %
21.03.2017 21:18 4,4 C 3,3 C 0,6 C 80 % 0 lf 1012,9 hPa 0,0 l/m 0 min 0 min 0 W/m 0,0 km/h (0 Bft) 93,62 %
21.03.2017 21:20 4,4 C 3,3 C 0,6 C 80 % 0 lf 1012,9 hPa 0,0 l/m 0 min 0 min 0 W/m 0,0 km/h (0 Bft) 94,92 %
21.03.2017 21:22 4,4 C 3,9 C 0,6 C 80 % 0 lf 1012,9 hPa 0,0 l/m 0 min 0 min 0 W/m 0,0 km/h (0 Bft) 93,02 %
21.03.2017 21:24 4,3 C 3,9 C 0,6 C 81 % 0 lf 1013,0 hPa 0,0 l/m 0 min 0 min 2 W/m 0,0 km/h (0 Bft) 93,62 %
21.03.2017 21:26 4,3 C 3,9 C 0,6 C 81 % 0 lf 1012,9 hPa 0,0 l/m 0 min 0 min 5 W/m 2,1 km/h (1 Bft) 95,65 %
21.03.2017 21:28 4,2 C 3,9 C 0,6 C 81 % 0 lf 1012,9 hPa 0,0 l/m 0 min 0 min 0 W/m 2,1 km/h (1 Bft) 93,62 %
21.03.2017 21:30 4,2 C 3,9 C 0,6 C 82 % 0 lf 1012,9 hPa 0,0 l/m 0 min 0 min 0 W/m 2,1 km/h (1 Bft) 93,62 %
21.03.2017 21:32 4,2 C 3,3 C 0,6 C 82 % 0 lf 1013,0 hPa 0,0 l/m 0 min 0 min 3 W/m 0,0 km/h (0 Bft) 87,23 %
21.03.2017 21:34 4,1 C 3,3 C 0,6 C 82 % 0 lf 1013,0 hPa 0,0 l/m 0 min 0 min 0 W/m 2,1 km/h (1 Bft) 95,74 %
21.03.2017 21:36 4,1 C 3,3 C 0,6 C 82 % 0 lf 1013,0 hPa 0,0 l/m 0 min 0 min 0 W/m 2,1 km/h (1 Bft) 97,92 %
21.03.2017 21:38 4,1 C 3,3 C 0,6 C 82 % 0 lf 1013,1 hPa 0,0 l/m 0 min 0 min 0 W/m 0,0 km/h (0 Bft) 97,83 %
21.03.2017 21:40 4,1 C 3,3 C 0,6 C 82 % 0 lf 1013,1 hPa 0,0 l/m 0 min 0 min 0 W/m 0,0 km/h (0 Bft) 97,87 %
21.03.2017 21:42 4,0 C 3,3 C 0,6 C 82 % 0 lf 1013,0 hPa 0,0 l/m 0 min 0 min 0 W/m 0,0 km/h (0 Bft) 97,87 %
21.03.2017 21:44 3,9 C 3,3 C 0,6 C 83 % 0 lf 1013,0 hPa 0,0 l/m 0 min 0 min 0 W/m 0,0 km/h (0 Bft) 95,74 %
21.03.2017 21:46 3,9 C 3,3 C 0,6 C 82 % 0 lf 1013,0 hPa 0,0 l/m 0 min 0 min 0 W/m 0,0 km/h (0 Bft) 97,87 %
21.03.2017 21:48 3,9 C 3,3 C 0,6 C 83 % 0 lf 1013,1 hPa 0,0 l/m 0 min 0 min 0 W/m 2,1 km/h (1 Bft) 93,62 %
21.03.2017 21:50 3,9 C 3,3 C 0,6 C 83 % 0 lf 1013,0 hPa 0,0 l/m 0 min 0 min 0 W/m 0,0 km/h (0 Bft) 97,83 %
21.03.2017 21:52 3,8 C 3,3 C 0,6 C 83 % 0 lf 1013,1 hPa 0,0 l/m 0 min 0 min 0 W/m 0,0 km/h (0 Bft) 97,87 %
21.03.2017 21:54 3,8 C 3,3 C 0,6 C 83 % 0 lf 1013,1 hPa 0,0 l/m 0 min 0 min 0 W/m 2,1 km/h (1 Bft) 95,74 %
21.03.2017 21:56 3,8 C 2,8 C 0,6 C 83 % 0 lf 1013,1 hPa 0,0 l/m 0 min 0 min 5 W/m 2,1 km/h (1 Bft) 97,87 %
21.03.2017 21:58 3,7 C 2,8 C 0,6 C 83 % 0 lf 1013,1 hPa 0,0 l/m 0 min 0 min 0 W/m 2,1 km/h (1 Bft) 91,49 %
21.03.2017 22:00 3,7 C 2,8 C 0,6 C 83 % 0 lf 1013,1 hPa 0,0 l/m 0 min 0 min 5 W/m 0,0 km/h (0 Bft) 93,62 %
21.03.2017 22:02 3,7 C 2,8 C 0,6 C 83 % 0 lf 1013,2 hPa 0,0 l/m 0 min 0 min 5 W/m 0,0 km/h (0 Bft) 93,48 %
21.03.2017 22:04 3,7 C 2,8 C 0,6 C 83 % 0 lf 1013,2 hPa 0,0 l/m 0 min 0 min 4 W/m 2,1 km/h (1 Bft) 95,74 %
21.03.2017 22:06 3,6 C 2,8 C 0,6 C 83 % 0 lf 1013,2 hPa 0,0 l/m 0 min 0 min 0 W/m 2,1 km/h (1 Bft) 93,62 %
21.03.2017 22:08 3,6 C 2,8 C 0,6 C 83 % 0 lf 1013,2 hPa 0,0 l/m 0 min 0 min 5 W/m 2,1 km/h (1 Bft) 91,49 %
21.03.2017 22:10 3,6 C 2,8 C 0,6 C 84 % 0 lf 1013,2 hPa 0,0 l/m 0 min 0 min 0 W/m 0,0 km/h (0 Bft) 91,49 %
21.03.2017 22:12 3,6 C 2,8 C 0,6 C 84 % 0 lf 1013,3 hPa 0,0 l/m 0 min 0 min 0 W/m 0,0 km/h (0 Bft) 91,49 %
21.03.2017 22:14 3,5 C 2,8 C 0,6 C 84 % 0 lf 1013,2 hPa 0,0 l/m 0 min 0 min 0 W/m 2,1 km/h (1 Bft) 95,65 %
21.03.2017 22:16 3,5 C 2,8 C 0,6 C 84 % 0 lf 1013,2 hPa 0,0 l/m 0 min 0 min 0 W/m 4,2 km/h (1 Bft) 93,62 %
21.03.2017 22:18 3,4 C 2,8 C 0,6 C 84 % 0 lf 1013,2 hPa 0,0 l/m 0 min 0 min 0 W/m 4,2 km/h (1 Bft) 93,62 %
21.03.2017 22:20 3,4 C 2,8 C 0,6 C 84 % 0 lf 1013,2 hPa 0,0 l/m 0 min 0 min 0 W/m 6,3 km/h (2 Bft) 93,62 %
21.03.2017 22:22 3,4 C 2,8 C 0,6 C 85 % 0 lf 1013,2 hPa 0,0 l/m 0 min 0 min 0 W/m 4,2 km/h (1 Bft) 91,49 %
21.03.2017 22:24 3,4 C 2,8 C 0,6 C 85 % 0 lf 1013,2 hPa 0,0 l/m 0 min 0 min 0 W/m 4,2 km/h (1 Bft) 93,48 %
21.03.2017 22:26 3,3 C 2,8 C 0,6 C 85 % 0 lf 1013,2 hPa 0,0 l/m 0 min 0 min 0 W/m 2,1 km/h (1 Bft) 91,49 %
21.03.2017 22:28 3,3 C 2,8 C 0,6 C 85 % 0 lf 1013,3 hPa 0,0 l/m 0 min 0 min 0 W/m 2,1 km/h (1 Bft) 95,74 %
21.03.2017 22:30 3,3 C 2,8 C 0,0 C 85 % 0 lf 1013,3 hPa 0,0 l/m 0 min 0 min 0 W/m 2,1 km/h (1 Bft) 95,74 %
21.03.2017 22:32 3,2 C 2,8 C 0,0 C 85 % 0 lf 1013,3 hPa 0,0 l/m 0 min 0 min 0 W/m 2,1 km/h (1 Bft) 97,87 %
21.03.2017 22:34 3,2 C 2,8 C 0,0 C 85 % 0 lf 1013,3 hPa 0,0 l/m 0 min 0 min 0 W/m 4,2 km/h (1 Bft) 95,74 %
21.03.2017 22:36 3,2 C 2,8 C 0,6 C 85 % 0 lf 1013,3 hPa 0,0 l/m 0 min 0 min 0 W/m 2,1 km/h (1 Bft) 95,65 %
21.03.2017 22:38 3,2 C 2,8 C 0,6 C 85 % 0 lf 1013,3 hPa 0,0 l/m 0 min 0 min 0 W/m 2,1 km/h (1 Bft) 95,74 %
21.03.2017 22:40 3,1 C 2,8 C 0,0 C 85 % 0 lf 1013,4 hPa 0,0 l/m 0 min 0 min 0 W/m 2,1 km/h (1 Bft) 97,87 %
21.03.2017 22:42 3,1 C 2,8 C 0,0 C 86 % 0 lf 1013,3 hPa 0,0 l/m 0 min 0 min 0 W/m 4,2 km/h (1 Bft) 95,74 %
21.03.2017 22:44 3,1 C 2,8 C 0,0 C 86 % 0 lf 1013,3 hPa 0,0 l/m 0 min 0 min 0 W/m 6,3 km/h (2 Bft) 97,87 %
21.03.2017 22:46 3,0 C 2,8 C 0,0 C 86 % 0 lf 1013,3 hPa 0,0 l/m 0 min 0 min 0 W/m 4,2 km/h (1 Bft) 95,74 %
21.03.2017 22:48 3,0 C 2,8 C 0,0 C 86 % 0 lf 1013,4 hPa 0,0 l/m 0 min 0 min 0 W/m 4,2 km/h (1 Bft) 100,00 %
21.03.2017 22:50 2,9 C 2,8 C 0,0 C 86 % 0 lf 1013,4 hPa 0,0 l/m 0 min 0 min 0 W/m 4,2 km/h (1 Bft) 97,87 %
21.03.2017 22:52 2,9 C 2,8 C 0,0 C 86 % 0 lf 1013,3 hPa 0,0 l/m 0 min 0 min 0 W/m 4,2 km/h (1 Bft) 94,00 %
21.03.2017 22:54 2,9 C 2,8 C 0,0 C 86 % 0 lf 1013,4 hPa 0,0 l/m 0 min 0 min 0 W/m 6,3 km/h (2 Bft) 97,87 %
21.03.2017 22:56 2,9 C 2,8 C 0,0 C 86 % 0 lf 1013,4 hPa 0,0 l/m 0 min 0 min 0 W/m 4,2 km/h (1 Bft) 95,74 %
21.03.2017 22:58 2,8 C 2,8 C 0,0 C 86 % 0 lf 1013,4 hPa 0,0 l/m 0 min 0 min 0 W/m 4,2 km/h (1 Bft) 100,00 %
21.03.2017 23:00 2,8 C 2,8 C 0,0 C 86 % 0 lf 1013,3 hPa 0,0 l/m 0 min 0 min 0 W/m 4,2 km/h (1 Bft) 100,00 %
21.03.2017 23:02 2,8 C 2,8 C 0,0 C 86 % 0 lf 1013,4 hPa 0,0 l/m 0 min 0 min 0 W/m 2,1 km/h (1 Bft) 97,87 %
21.03.2017 23:04 2,8 C 2,8 C 0,0 C 86 % 0 lf 1013,3 hPa 0,0 l/m 0 min 0 min 0 W/m 2,1 km/h (1 Bft) 95,74 %
21.03.2017 23:06 2,8 C 2,8 C 0,0 C 86 % 0 lf 1013,3 hPa 0,0 l/m 0 min 0 min 0 W/m 4,2 km/h (1 Bft) 97,87 %
21.03.2017 23:08 2,7 C 2,8 C 0,0 C 86 % 0 lf 1013,4 hPa 0,0 l/m 0 min 0 min 0 W/m 4,2 km/h (1 Bft) 97,87 %
21.03.2017 23:10 2,7 C 2,8 C 0,0 C 86 % 0 lf 1013,4 hPa 0,0 l/m 0 min 0 min 0 W/m 4,2 km/h (1 Bft) 97,83 %
21.03.2017 23:12 2,7 C 2,8 C 0,0 C 86 % 0 lf 1013,3 hPa 0,0 l/m 0 min 0 min 0 W/m 4,2 km/h (1 Bft) 100,00 %
21.03.2017 23:14 2,7 C 2,8 C 0,0 C 86 % 0 lf 1013,3 hPa 0,0 l/m 0 min 0 min 0 W/m 4,2 km/h (1 Bft) 100,00 %
21.03.2017 23:16 2,7 C 2,8 C 0,0 C 86 % 0 lf 1013,3 hPa 0,0 l/m 0 min 0 min 0 W/m 6,3 km/h (2 Bft) 100,00 %
21.03.2017 23:18 2,7 C 2,8 C 0,0 C 86 % 0 lf 1013,3 hPa 0,0 l/m 0 min 0 min 0 W/m 6,3 km/h (2 Bft) 93,62 %
21.03.2017 23:20 2,7 C 2,8 C 0,0 C 86 % 0 lf 1013,3 hPa 0,0 l/m 0 min 0 min 0 W/m 4,2 km/h (1 Bft) 97,87 %
21.03.2017 23:22 2,6 C 2,8 C 0,0 C 86 % 0 lf 1013,4 hPa 0,0 l/m 0 min 0 min 0 W/m 6,3 km/h (2 Bft) 97,56 %
21.03.2017 23:24 2,6 C 2,8 C 0,0 C 86 % 0 lf 1013,4 hPa 0,0 l/m 0 min 0 min 0 W/m 6,3 km/h (2 Bft) 97,83 %
21.03.2017 23:26 2,6 C 2,8 C 0,0 C 86 % 0 lf 1013,4 hPa 0,0 l/m 0 min 0 min 0 W/m 6,3 km/h (2 Bft) 97,87 %
21.03.2017 23:28 2,6 C 2,8 C 0,0 C 86 % 0 lf 1013,4 hPa 0,0 l/m 0 min 0 min 0 W/m 4,2 km/h (1 Bft) 95,74 %
21.03.2017 23:30 2,6 C 2,8 C 0,0 C 86 % 0 lf 1013,4 hPa 0,0 l/m 0 min 0 min 0 W/m 6,3 km/h (2 Bft) 100,00 %
21.03.2017 23:32 2,6 C 2,8 C 0,0 C 87 % 0 lf 1013,4 hPa 0,0 l/m 0 min 0 min 0 W/m 4,2 km/h (1 Bft) 100,00 %
21.03.2017 23:34 2,6 C 2,8 C 0,0 C 87 % 0 lf 1013,4 hPa 0,0 l/m 0 min 0 min 0 W/m 4,2 km/h (1 Bft) 97,87 %
21.03.2017 23:36 2,6 C 2,8 C 0,6 C 87 % 0 lf 1013,4 hPa 0,0 l/m 0 min 0 min 0 W/m 4,2 km/h (1 Bft) 92,50 %
21.03.2017 23:38 2,6 C 2,8 C 0,6 C 87 % 0 lf 1013,3 hPa 0,0 l/m 0 min 0 min 0 W/m 6,3 km/h (2 Bft) 95,74 %
21.03.2017 23:40 2,6 C 2,8 C 0,6 C 87 % 0 lf 1013,3 hPa 0,0 l/m 0 min 0 min 0 W/m 6,3 km/h (2 Bft) 97,87 %
21.03.2017 23:42 2,5 C 2,8 C 0,6 C 87 % 0 lf 1013,3 hPa 0,0 l/m 0 min 0 min 0 W/m 4,2 km/h (1 Bft) 97,87 %
21.03.2017 23:44 2,5 C 2,8 C 0,6 C 87 % 0 lf 1013,4 hPa 0,0 l/m 0 min 0 min 0 W/m 4,2 km/h (1 Bft) 93,62 %
21.03.2017 23:46 2,5 C 2,8 C 0,6 C 87 % 0 lf 1013,4 hPa 0,0 l/m 0 min 0 min 0 W/m 6,3 km/h (2 Bft) 97,87 %
21.03.2017 23:48 2,5 C 2,8 C 0,6 C 87 % 0 lf 1013,5 hPa 0,0 l/m 0 min 0 min 0 W/m 4,2 km/h (1 Bft) 93,48 %
21.03.2017 23:50 2,5 C 2,8 C 0,6 C 87 % 0 lf 1013,5 hPa 0,0 l/m 0 min 0 min 0 W/m 4,2 km/h (1 Bft) 93,22 %
21.03.2017 23:52 2,5 C 2,8 C 0,6 C 87 % 0 lf 1013,5 hPa 0,0 l/m 0 min 0 min 0 W/m 4,2 km/h (1 Bft) 88,37 %
21.03.2017 23:54 2,5 C 2,8 C 0,6 C 87 % 0 lf 1013,4 hPa 0,0 l/m 0 min 0 min 0 W/m 6,3 km/h (2 Bft) 95,74 %
21.03.2017 23:56 2,5 C 2,8 C 0,6 C 87 % 0 lf 1013,5 hPa 0,0 l/m 0 min 0 min 0 W/m 6,3 km/h (2 Bft) 95,74 %
21.03.2017 23:58 2,5 C 2,8 C 0,6 C 87 % 0 lf 1013,4 hPa 0,0 l/m 0 min 0 min 0 W/m 6,3 km/h (2 Bft) 95,65 %
_ Min-Zeit 23:42 20:52 22:30 16:02 00:02 00:50 - - - - 20:10 20:48
Minimum _ 2,5 C 2,8 C 0,0 C 53 % 0 lf 1004,7 hPa - - - - 0,0 km/h (0 Bft) 68,09 %
_ Max-Zeit 12:58 12:54 12:52 03:08 01:36 23:48 09:26 07:48 00:00 12:54 13:52 00:06
Maximum _ 11,7 C 18,3 C 12,8 C 94 % 15 lf 1013,5 hPa 0,4 l/m 2 min 2 min 627 W/m 46,0 km/h
W-NW (6 Bft)
100,00 %
Durchschnitt _ 8,8 C 9,3 C 7,2 C 79 % 3 lf 1008,5 hPa #1,4 l/m #5:34 h #2:39 h 176 W/m 18,2 km/h (3 Bft) 95,68 %
© 2017 W. Hausmann